Sigfox identifier Datetime Temperature Humidity SNR
003B598A 2019-04-12 08:19:44 20.9 18 10.2
003B598A 2019-04-12 07:47:57 20.9 18 10.2
003B598A 2019-04-12 06:44:18 20.9 18 10.3
003B598A 2019-04-12 06:12:29 20.9 18 10.4
003B598A 2019-04-12 04:37:03 20.9 18 10.5
003B598A 2019-04-12 04:05:16 21 18 10.5
003B598A 2019-04-12 03:33:26 21 18 11
003B598A 2019-04-12 01:57:58 21.1 18 11.3
003B598A 2019-04-12 00:54:21 21.2 18 11.5
003B598A 2019-04-12 00:22:34 21.3 18 11.6
003B598A 2019-04-11 23:50:48 21.3 18 11.7
003B598A 2019-04-11 23:18:59 21.4 18 11.8
003B598A 2019-04-11 22:47:08 21.4 18 11.9
003B598A 2019-04-11 22:15:20 21.4 18 11.9
003B598A 2019-04-11 21:43:33 21.4 18 11.9
003B598A 2019-04-11 21:11:46 21.4 18 12.1
003B598A 2019-04-11 20:39:56 21.4 18 12.1
003B598A 2019-04-11 20:08:09 21.3 17 12.4
003B598A 2019-04-11 19:36:20 21.3 17 12.5
003B598A 2019-04-11 19:04:30 21.2 17 12.4
003B598A 2019-04-11 18:32:40 21.2 17 12.5
003B598A 2019-04-11 18:00:54 21.2 17 12.6
003B598A 2019-04-11 17:29:06 21.3 17 12.9
003B598A 2019-04-11 16:57:20 21.3 17 12.7
003B598A 2019-04-11 16:25:33 21.3 18 12.8
003B598A 2019-04-11 15:53:46 21.2 18 12.8
003B598A 2019-04-11 15:21:57 21.1 18 12.9
003B598A 2019-04-11 14:50:08 21 18 13.2
003B598A 2019-04-11 13:14:46 20.9 18 13.1
003B598A 2019-04-11 12:42:59 20.9 18 13
003B598A 2019-04-11 12:11:14 20.9 18 13
003B598A 2019-04-11 11:07:47 20.9 18 12.8
003B598A 2019-04-11 09:00:49 20.7 18 12.6
003B598A 2019-04-11 08:29:06 20.7 18 12.5
003B598A 2019-04-11 06:53:48 20.7 18 12.5
003B598A 2019-04-11 06:22:05 20.8 18 12.4
003B598A 2019-04-11 05:17:53 20.8 18 12.3
003B598A 2019-04-11 04:46:09 20.8 18 12.4
003B598A 2019-04-11 01:35:26 20.9 19 12.6
003B598A 2019-04-11 01:03:37 21 19 12.7
003B598A 2019-04-11 00:00:05 21 19 12.5
003B598A 2019-04-10 22:56:27 20.9 19 12.6
003B598A 2019-04-10 22:24:38 21 19 12.2
003B598A 2019-04-10 21:52:52 21 19 12.4
003B598A 2019-04-10 21:21:02 20.9 19 12.4
003B598A 2019-04-10 20:49:15 20.9 19 12.2
003B598A 2019-04-10 20:17:27 20.9 19 12.2
003B598A 2019-04-10 19:45:38 20.8 19 11.9
003B598A 2019-04-10 19:13:49 20.8 19 12
003B598A 2019-04-10 18:42:02 20.7 18 12
003B598A 2019-04-10 18:10:14 20.8 19 12
003B598A 2019-04-10 17:38:25 20.8 19 11.9
003B598A 2019-04-10 17:06:39 20.8 19 11.5
003B598A 2019-04-10 16:34:51 20.8 19 11.8
003B598A 2019-04-10 16:03:01 20.8 19 12.2
003B598A 2019-04-10 15:31:11 20.9 20 12.3
003B598A 2019-04-10 14:27:31 20.9 20 12.1
003B598A 2019-04-10 13:23:57 20.9 20 12.2
003B598A 2019-04-10 12:52:13 20.8 21 12.4
003B598A 2019-04-10 12:20:28 20.8 21 12.2
003B598A 2019-04-10 11:48:39 20.8 21 12.3
003B598A 2019-04-10 07:02:40 20.6 23 12.4
003B598A 2019-04-10 06:30:56 20.6 24 12.3
003B598A 2019-04-10 05:59:11 20.6 24 12
003B598A 2019-04-10 04:55:34 20.6 24 12.2
003B598A 2019-04-10 03:51:59 20.6 24 12.1
003B598A 2019-04-10 02:15:52 20.7 25 12
003B598A 2019-04-10 01:44:05 20.7 25 12
003B598A 2019-04-10 01:12:12 20.7 26 11.8
003B598A 2019-04-09 23:36:47 20.7 26 12.5
003B598A 2019-04-09 23:05:00 20.8 27 13.1
003B598A 2019-04-09 22:01:26 20.7 27 13.7
003B598A 2019-04-09 21:29:39 20.7 27 14.1
003B598A 2019-04-09 20:26:03 20.8 27 14.1
003B598A 2019-04-09 18:50:36 20.8 27 14.4
003B598A 2019-04-09 18:18:47 20.8 27 14.5
003B598A 2019-04-09 17:46:58 20.8 27 14.7
003B598A 2019-04-09 17:15:13 20.9 27 14.8
003B598A 2019-04-09 16:43:22 20.9 27 15.1
003B598A 2019-04-09 16:11:32 20.9 27 15
003B598A 2019-04-09 15:39:45 20.9 27 15.2
003B598A 2019-04-09 14:36:11 20.9 26 15.3
003B598A 2019-04-09 14:04:27 20.9 26 15.3
003B598A 2019-04-09 13:32:43 20.9 26 15.5
003B598A 2019-04-09 13:00:53 20.9 26 15.5
003B598A 2019-04-09 11:57:19 21 26 15.5
003B598A 2019-04-09 11:25:30 20.9 26 15.9
003B598A 2019-04-09 10:21:52 20.8 26 15.9
003B598A 2019-04-09 09:50:03 20.8 26 16
003B598A 2019-04-09 09:18:16 20.8 25 15.8
003B598A 2019-04-09 08:46:28 20.7 25 15.8
003B598A 2019-04-09 08:14:38 20.7 25 16
003B598A 2019-04-09 07:42:50 20.7 25 16.2
003B598A 2019-04-09 07:10:59 20.7 25 16.1
003B598A 2019-04-09 06:39:10 20.8 25 15.8
003B598A 2019-04-09 06:07:22 20.8 25 15.5
003B598A 2019-04-09 05:35:34 20.8 25 15.5
003B598A 2019-04-09 05:03:45 20.8 25 15.5
003B598A 2019-04-09 04:31:57 20.8 25 15.6
003B598A 2019-04-09 04:00:08 20.8 25 15.3
003B598A 2019-04-09 03:28:22 20.8 25 15.3
003B598A 2019-04-09 02:24:43 20.8 25 15.3
003B598A 2019-04-09 02:24:43 20.8 25 15.3
003B598A 2019-04-09 02:24:43 20.8 25 15.3
003B598A 2019-04-09 01:52:53 20.8 25 15
003B598A 2019-04-09 01:21:05 20.8 25 15.2
003B598A 2019-04-09 00:48:38 20.8 25 14.9
003B598A 2019-04-09 00:16:50 20.9 26 14.9
003B598A 2019-04-08 23:45:01 20.9 26 14.5
003B598A 2019-04-08 23:13:12 20.9 26 14.5
003B598A 2019-04-08 22:41:24 20.9 26 14.5
003B598A 2019-04-08 22:09:39 20.9 26 13.9
003B598A 2019-04-08 21:37:52 20.9 26 14.1
003B598A 2019-04-08 21:06:06 20.9 26 14.4
003B598A 2019-04-08 20:34:19 21 26 14.5
003B598A 2019-04-08 20:02:33 20.9 26 14.4
003B598A 2019-04-08 19:30:47 20.9 26 14.1
003B598A 2019-04-08 18:59:00 20.9 26 13.9
003B598A 2019-04-08 18:27:16 20.9 26 14.1
003B598A 2019-04-08 17:55:25 20.9 26 14
003B598A 2019-04-08 17:23:39 21 26 14.4
003B598A 2019-04-08 16:51:54 21 26 14.1
003B598A 2019-04-08 16:20:09 21 26 13.8
003B598A 2019-04-08 15:48:20 21 26 13.5
003B598A 2019-04-08 14:44:45 21 26 13.8
003B598A 2019-04-08 14:12:57 21 26 13.8
003B598A 2019-04-08 13:09:17 21 26 13.5
003B598A 2019-04-08 12:37:26 20.8 25 13.3
003B598A 2019-04-08 12:05:38 20.7 25 13.2
003B598A 2019-04-08 11:33:46 20.7 25 12.8
003B598A 2019-04-08 11:01:59 20.7 25 12.9
003B598A 2019-04-08 10:30:10 20.6 25 12.9
003B598A 2019-04-08 09:58:19 20.6 24 13
003B598A 2019-04-08 09:26:27 20.5 24 13
003B598A 2019-04-08 08:54:38 20.4 24 13.1
003B598A 2019-04-08 08:22:51 20.4 24 13
003B598A 2019-04-08 07:50:58 20.3 23 13
003B598A 2019-04-08 07:19:09 20.3 23 13
003B598A 2019-04-08 06:47:25 20.4 23 12.6
003B598A 2019-04-08 06:15:34 20.4 23 12.7
003B598A 2019-04-08 05:43:43 20.4 23 13
003B598A 2019-04-08 05:11:55 20.4 23 17.8
003B598A 2019-04-08 04:40:09 20.5 23 17.8
003B598A 2019-04-08 04:08:22 20.5 23 17.8
003B598A 2019-04-08 03:36:35 20.5 23 17.8
003B598A 2019-04-08 03:04:52 20.5 23 17.7
003B598A 2019-04-08 02:33:01 20.6 23 17.7
003B598A 2019-04-08 02:01:17 20.6 23 17.7
003B598A 2019-04-08 01:29:23 20.6 23 17.6
003B598A 2019-04-08 00:57:34 20.6 23 17.6
003B598A 2019-04-08 00:25:49 20.7 23 17.6
003B598A 2019-04-07 23:54:02 20.7 23 17.7
003B598A 2019-04-07 23:22:15 20.7 22 17.8
003B598A 2019-04-07 22:50:28 20.8 22 17.8
003B598A 2019-04-07 22:18:07 20.8 22 17.8
003B598A 2019-04-07 21:46:20 20.9 22 17.7
003B598A 2019-04-07 21:14:31 20.9 22 17.8
003B598A 2019-04-07 20:42:45 20.9 22 17.8
003B598A 2019-04-07 20:10:59 20.9 22 17.9
003B598A 2019-04-07 19:39:15 21 22 17.9
003B598A 2019-04-07 19:07:30 21 22 17.9
003B598A 2019-04-07 18:35:47 21 22 17.9
003B598A 2019-04-07 18:03:58 21 22 17.8
003B598A 2019-04-07 17:00:26 20.9 22 17.8
003B598A 2019-04-07 16:28:43 20.8 22 17.8
003B598A 2019-04-07 15:56:58 20.8 22 17.7
003B598A 2019-04-07 15:25:10 20.7 22 12.9
003B598A 2019-04-07 13:49:55 20.5 21 13.2
003B598A 2019-04-07 13:18:03 20.5 21 13.1
003B598A 2019-04-07 12:46:18 20.5 21 13.2
003B598A 2019-04-07 12:14:25 20.5 21 13.1
003B598A 2019-04-07 11:42:37 20.5 21 12.9
003B598A 2019-04-07 11:10:45 20.5 21 12.9
003B598A 2019-04-07 10:38:56 20.5 21 13.1
003B598A 2019-04-07 10:07:08 20.5 21 12.9
003B598A 2019-04-07 09:35:19 20.5 21 12.9
003B598A 2019-04-07 09:03:32 20.5 21 12.6
003B598A 2019-04-07 08:31:43 20.5 21 12.4
003B598A 2019-04-07 07:59:57 20.5 21 12.3
003B598A 2019-04-07 07:28:10 20.6 21 12.6
003B598A 2019-04-07 06:56:17 20.6 21 12.6
003B598A 2019-04-07 06:24:33 20.6 21 12.5
003B598A 2019-04-07 05:52:43 20.6 21 12.3
003B598A 2019-04-07 05:21:02 20.7 21 12
003B598A 2019-04-07 04:49:13 20.7 21 12
003B598A 2019-04-07 04:17:27 20.7 21 12.2
003B598A 2019-04-07 03:13:50 20.8 21 12.4
003B598A 2019-04-07 02:10:18 20.9 21 12.4
003B598A 2019-04-07 01:38:33 21 21 12.4
003B598A 2019-04-07 01:06:45 21 21 12.3
003B598A 2019-04-07 00:34:54 21 21 12.1
003B598A 2019-04-07 00:03:05 21.1 21 12.2
003B598A 2019-04-06 23:31:16 21.2 21 12.2
003B598A 2019-04-06 22:59:32 21.2 21 12.2
003B598A 2019-04-06 22:27:43 21.2 21 11.8
003B598A 2019-04-06 21:55:57 21.3 21 11.8
003B598A 2019-04-06 20:20:37 21.3 21 11.8
003B598A 2019-04-06 19:48:06 21.4 21 12
003B598A 2019-04-06 18:44:31 21.3 21 11.8
003B598A 2019-04-06 18:12:41 21.3 21 11.9
003B598A 2019-04-06 17:40:56 21.2 21 11.8
003B598A 2019-04-06 17:09:06 21.2 21 12
003B598A 2019-04-06 16:37:19 21.1 21 12.2
003B598A 2019-04-06 15:02:05 20.7 21 12.4
003B598A 2019-04-06 14:30:18 20.6 21 12.3
003B598A 2019-04-06 13:58:34 20.6 21 12.4
003B598A 2019-04-06 13:26:50 20.6 21 12.3
003B598A 2019-04-06 12:55:03 20.6 21 12.5
003B598A 2019-04-06 12:23:13 20.6 21 12.5
003B598A 2019-04-06 11:51:27 20.6 20 12.4
003B598A 2019-04-06 11:19:40 20.6 20 12.4
003B598A 2019-04-06 10:47:52 20.6 20 17.5
003B598A 2019-04-06 10:16:06 20.6 20 17.6
003B598A 2019-04-06 09:44:18 20.6 20 17.7
003B598A 2019-04-06 09:12:33 20.6 20 17.6
003B598A 2019-04-06 08:40:47 20.6 20 17.8
003B598A 2019-04-06 07:05:33 20.7 20 17.8
003B598A 2019-04-06 06:33:48 20.8 20 17.8
003B598A 2019-04-06 06:02:04 20.8 20 17.8
003B598A 2019-04-06 05:30:21 20.8 20 17.9
003B598A 2019-04-06 04:58:35 20.9 20 17.9
003B598A 2019-04-06 04:26:46 20.9 20 17.9
003B598A 2019-04-06 03:55:04 21 20 18
003B598A 2019-04-06 03:23:19 21 20 18.1
003B598A 2019-04-06 02:51:33 21.1 20 18
003B598A 2019-04-06 02:19:46 21.2 20 18
003B598A 2019-04-06 01:48:00 21.2 20 18
003B598A 2019-04-06 00:44:27 21.4 19 18.2
003B598A 2019-04-05 23:40:53 21.5 19 18.2
003B598A 2019-04-05 23:09:08 21.6 19 18.1
003B598A 2019-04-05 22:37:21 21.7 19 18.1
003B598A 2019-04-05 22:05:33 21.8 19 18.1
003B598A 2019-04-05 21:01:55 21.9 19 18
003B598A 2019-04-05 19:26:27 22 19 18.3
003B598A 2019-04-05 18:54:40 21.9 19 18.5
003B598A 2019-04-05 18:22:53 21.8 19 18.7
003B598A 2019-04-05 17:51:01 21.8 19 15.5
003B598A 2019-04-05 17:18:40 21.8 20 15.3
003B598A 2019-04-05 16:46:54 21.8 20 15.1
003B598A 2019-04-05 16:15:03 21.8 21 15.2
003B598A 2019-04-05 15:43:14 21.6 21 15.4
003B598A 2019-04-05 14:39:37 21.5 22 15.8
003B598A 2019-04-05 14:07:49 21.4 21 18.9
003B598A 2019-04-05 13:35:58 21.3 21 19
003B598A 2019-04-05 13:04:14 21.4 21 19
003B598A 2019-04-05 12:32:22 21.3 22 19
003B598A 2019-04-05 12:00:38 21.3 22 19.1
003B598A 2019-04-05 11:28:48 21.3 22 19.1
003B598A 2019-04-05 10:57:00 21.3 21 19.2
003B598A 2019-04-05 10:25:15 21.2 21 19.3
003B598A 2019-04-05 09:53:33 21.1 20 19.4
003B598A 2019-04-05 09:21:45 21.1 20 19.4
003B598A 2019-04-05 08:50:02 21 19 19.2
003B598A 2019-04-05 08:18:14 21 19 19.4
003B598A 2019-04-05 07:14:42 21.1 19 19.4
003B598A 2019-04-05 06:11:12 21.1 19 19.4
003B598A 2019-04-05 05:07:38 21.2 19 19.4
003B598A 2019-04-05 04:35:50 21.2 19 19.4
003B598A 2019-04-05 04:04:01 21.2 19 19.2
003B598A 2019-04-05 03:32:19 21.3 19 19
003B598A 2019-04-05 03:00:29 21.3 19 18.8
003B598A 2019-04-05 02:28:38 21.3 19 18.8
003B598A 2019-04-05 01:56:49 21.4 19 18.8
003B598A 2019-04-05 01:24:59 21.4 19 18.8
003B598A 2019-04-05 00:53:12 21.4 19 18.8
003B598A 2019-04-05 00:21:21 21.5 19 18.6
003B598A 2019-04-04 23:49:36 21.5 19 18.4
003B598A 2019-04-04 23:17:46 21.5 19 14.9
003B598A 2019-04-04 22:45:58 21.6 19 14.5
003B598A 2019-04-04 22:14:12 21.6 18 18.3
003B598A 2019-04-04 21:42:22 21.6 18 18.3
003B598A 2019-04-04 21:10:35 21.6 18 18.2
003B598A 2019-04-04 20:38:51 21.6 18 18.2
003B598A 2019-04-04 20:07:00 21.6 18 18
003B598A 2019-04-04 19:35:11 21.6 18 17.9
003B598A 2019-04-04 19:03:22 21.6 18 17.8
003B598A 2019-04-04 18:31:36 21.6 18 17.8
003B598A 2019-04-04 17:59:47 21.6 18 17.9
003B598A 2019-04-04 17:27:58 21.6 19 17.8
003B598A 2019-04-04 16:24:19 21.6 19 17.8
003B598A 2019-04-04 15:52:32 21.5 20 17.8
003B598A 2019-04-04 15:20:41 21.4 20 17.8
003B598A 2019-04-04 14:16:21 21.3 20 17.9
003B598A 2019-04-04 13:44:33 21.2 20 17.8
003B598A 2019-04-04 13:12:45 21.2 20 17.9
003B598A 2019-04-04 12:40:59 21.1 20 17.9
003B598A 2019-04-04 12:09:09 21.1 20 17.9
003B598A 2019-04-04 11:37:19 21.1 20 17.9
003B598A 2019-04-04 11:05:35 21.1 20 18
003B598A 2019-04-04 10:33:46 21.1 20 18
003B598A 2019-04-04 10:01:59 21 20 18
003B598A 2019-04-04 09:30:13 21 20 18.1
003B598A 2019-04-04 08:26:42 21 20 18
003B598A 2019-04-04 07:54:53 21 20 18
003B598A 2019-04-04 07:23:00 21 20 13.9
003B598A 2019-04-04 06:51:13 21.1 20 13.9
003B598A 2019-04-04 06:19:28 21.1 20 13.8
003B598A 2019-04-04 05:47:43 21.1 20 13.4
003B598A 2019-04-04 05:15:59 21.1 20 13.4
003B598A 2019-04-04 04:44:14 21.2 20 13.4
003B598A 2019-04-04 04:12:28 21.2 20 13.4
003B598A 2019-04-04 03:40:41 21.2 20 13.1
003B598A 2019-04-04 03:08:55 21.3 20 13
003B598A 2019-04-04 02:37:05 21.3 20 13.2
003B598A 2019-04-04 02:05:20 21.3 20 13.3
003B598A 2019-04-04 01:33:35 21.4 19 13.4
003B598A 2019-04-04 01:01:49 21.5 19 13.4
003B598A 2019-04-04 00:30:03 21.5 19 13.4
003B598A 2019-04-03 23:58:17 21.6 19 13.4
003B598A 2019-04-03 22:54:51 21.6 19 12.9
003B598A 2019-04-03 22:23:01 21.7 19 13
003B598A 2019-04-03 21:51:18 21.7 19 13.1
003B598A 2019-04-03 21:19:29 21.7 19 13.1
003B598A 2019-04-03 20:47:43 21.7 19 12.8
003B598A 2019-04-03 20:15:53 21.8 19 13.1
003B598A 2019-04-03 19:44:07 21.8 19 13
003B598A 2019-04-03 19:12:21 21.8 19 13
003B598A 2019-04-03 18:40:29 21.8 19 13
003B598A 2019-04-03 18:08:43 21.9 19 12.7
003B598A 2019-04-03 17:36:56 22 20 12.6
003B598A 2019-04-03 17:05:12 22 20 12.7
003B598A 2019-04-03 16:01:29 21.8 21 12.6
003B598A 2019-04-03 15:29:42 21.6 21 12.9
003B598A 2019-04-03 14:57:50 21.5 21 12.9
003B598A 2019-04-03 14:26:01 21.4 21 12.8
003B598A 2019-04-03 13:54:15 21.4 21 12.7
003B598A 2019-04-03 13:22:27 21.3 21 12.5
003B598A 2019-04-03 12:50:38 21.2 20 12.3
003B598A 2019-04-03 12:18:16 21.3 20 12.2
003B598A 2019-04-03 11:46:29 21.2 21 12.2
003B598A 2019-04-03 11:14:44 21.2 21 11.9
003B598A 2019-04-03 10:42:57 21.1 21 12.1
003B598A 2019-04-03 10:11:08 21.1 21 11.8
003B598A 2019-04-03 09:39:19 20.9 20 11.8
003B598A 2019-04-03 09:07:30 20.8 20 12.2
003B598A 2019-04-03 08:35:42 20.8 20 12.2
003B598A 2019-04-03 08:03:52 20.9 20 12.3
003B598A 2019-04-03 07:32:02 20.9 20 12.4
003B598A 2019-04-03 07:00:14 20.9 20 12.9
003B598A 2019-04-03 06:28:30 20.9 20 13.2
003B598A 2019-04-03 05:56:43 20.9 20 13.3
003B598A 2019-04-03 03:49:33 21 19 17.7
003B598A 2019-04-03 03:17:46 21 19 17.8
003B598A 2019-04-03 02:45:59 21 19 17.8
003B598A 2019-04-03 02:14:11 21.1 19 18
003B598A 2019-04-03 01:42:25 21.1 19 17.9
003B598A 2019-04-03 00:38:45 21.1 19 18
003B598A 2019-04-03 00:06:57 21.2 19 18
003B598A 2019-04-02 23:35:10 21.2 19 18.1
003B598A 2019-04-02 23:03:26 21.3 18 18.1
003B598A 2019-04-02 22:31:38 21.3 18 18.1
003B598A 2019-04-02 21:59:54 21.3 18 18.1
003B598A 2019-04-02 21:28:08 21.4 18 20.2
003B598A 2019-04-02 20:56:26 21.4 18 20.1
003B598A 2019-04-02 20:24:38 21.4 18 20.2
003B598A 2019-04-02 19:52:51 21.4 18 20.2
003B598A 2019-04-02 18:17:37 21.5 18 20.2
003B598A 2019-04-02 17:45:50 21.6 19 20.3
003B598A 2019-04-02 16:10:31 21.6 21 20.4
003B598A 2019-04-02 15:38:44 21.5 22 20.3
003B598A 2019-04-02 14:03:24 21.1 23 20.3
003B598A 2019-04-02 13:31:33 20.9 22 20.3
003B598A 2019-04-02 12:59:46 21 22 20.4
003B598A 2019-04-02 12:27:56 20.9 22 20.3
003B598A 2019-04-02 11:56:06 20.9 22 20.3
003B598A 2019-04-02 11:24:19 20.9 22 20.3
003B598A 2019-04-02 10:20:46 20.8 21 18.4
003B598A 2019-04-02 09:48:28 20.8 21 18.4
003B598A 2019-04-02 09:16:44 20.8 21 18.4
003B598A 2019-04-02 08:44:57 20.7 20 18.3
003B598A 2019-04-02 08:13:09 20.7 20 18.3
003B598A 2019-04-02 07:41:23 20.7 20 18.2
003B598A 2019-04-02 06:37:50 20.7 19 18.3
003B598A 2019-04-02 06:06:01 20.8 19 18.3
003B598A 2019-04-02 05:34:13 20.8 19 18.4
003B598A 2019-04-02 05:02:26 20.8 19 18.4
003B598A 2019-04-02 04:30:37 20.8 19 18.3
003B598A 2019-04-02 03:58:52 20.9 19 14.7
003B598A 2019-04-02 03:27:04 20.9 19 14.7
003B598A 2019-04-02 02:55:13 20.9 19 14.4
003B598A 2019-04-02 01:51:34 21 18 14.6
003B598A 2019-04-02 01:19:46 21 18 14.7
003B598A 2019-04-02 00:47:57 21 18 14.3
003B598A 2019-04-02 00:16:10 21 18 14
003B598A 2019-04-01 23:44:22 21.1 18 14
003B598A 2019-04-01 23:12:31 21.1 17 13.9
003B598A 2019-04-01 22:40:41 21.2 17 13.9
003B598A 2019-04-01 22:08:53 21.2 17 13.4
003B598A 2019-04-01 21:37:05 21.2 17 13.6
003B598A 2019-04-01 21:05:17 21.2 17 13.3
003B598A 2019-04-01 20:33:31 21.2 17 13
003B598A 2019-04-01 20:01:42 21.2 17 12.8
003B598A 2019-04-01 19:29:59 21.2 17 12.6
003B598A 2019-04-01 18:58:11 21.2 17 12.8
003B598A 2019-04-01 17:54:39 21.3 17 13.1
003B598A 2019-04-01 17:22:52 21.3 18 13.4
003B598A 2019-04-01 16:51:06 21.2 18 13.4
003B598A 2019-04-01 16:19:22 21.1 18 12.9
003B598A 2019-04-01 15:47:38 21 18 12.8
003B598A 2019-04-01 15:15:53 20.9 19 12.8
003B598A 2019-04-01 14:12:19 20.7 20 12.8
003B598A 2019-04-01 13:40:28 20.7 20 12.8
003B598A 2019-04-01 13:08:41 20.7 21 12.8
003B598A 2019-04-01 11:33:24 20.6 22 13
003B598A 2019-04-01 10:29:48 20.6 22 13
003B598A 2019-04-01 09:57:56 20.6 22 12.9
003B598A 2019-04-01 09:26:11 20.6 22 13
003B598A 2019-04-01 08:54:20 20.6 22 13.1
003B598A 2019-04-01 07:50:41 20.5 23 13.1
003B598A 2019-04-01 06:46:19 20.5 23 13.1
003B598A 2019-04-01 06:14:26 20.5 23 13.1
003B598A 2019-04-01 05:42:33 20.5 23 13.2
003B598A 2019-04-01 05:10:43 20.6 23 13.4
003B598A 2019-04-01 04:38:56 20.5 23 13.2
003B598A 2019-04-01 04:07:07 20.5 23 13.3
003B598A 2019-04-01 03:35:18 20.5 23 17.8
003B598A 2019-04-01 03:03:30 20.5 24 17.8
003B598A 2019-04-01 02:31:42 20.6 24 17.8
003B598A 2019-04-01 01:59:50 20.6 24 17.7
003B598A 2019-04-01 01:28:03 20.6 24 17.8
003B598A 2019-04-01 00:56:14 20.6 24 17.7
003B598A 2019-04-01 00:24:30 20.7 24 17.9
003B598A 2019-03-31 23:52:44 20.7 25 17.8
003B598A 2019-03-31 22:49:05 20.7 25 17.8
003B598A 2019-03-31 22:17:18 20.8 25 17.8
003B598A 2019-03-31 21:45:36 20.8 26 17.8
003B598A 2019-03-31 21:13:48 20.9 26 17.8
003B598A 2019-03-31 20:42:01 20.9 26 17.8
003B598A 2019-03-31 20:10:15 20.9 27 17.9
003B598A 2019-03-31 19:06:40 20.8 27 17.8
003B598A 2019-03-31 18:34:54 20.8 27 17.9
003B598A 2019-03-31 18:03:04 20.7 28 17.8
003B598A 2019-03-31 17:31:17 20.7 28 17.9
003B598A 2019-03-31 16:59:28 20.7 27 18.1
003B598A 2019-03-31 16:27:38 20.7 27 18
003B598A 2019-03-31 15:55:54 20.7 27 18
003B598A 2019-03-31 15:24:05 20.7 27 18
003B598A 2019-03-31 14:52:21 20.6 27 18
003B598A 2019-03-31 14:20:32 20.6 27 18
003B598A 2019-03-31 13:48:45 20.6 27 17.9
003B598A 2019-03-31 13:16:59 20.7 27 13.3
003B598A 2019-03-31 12:45:05 20.6 27 13.3
003B598A 2019-03-31 12:13:16 20.6 27 13.3
003B598A 2019-03-31 11:41:30 20.6 27 13.6
003B598A 2019-03-31 11:09:39 20.6 27 13.5
003B598A 2019-03-31 10:06:06 20.6 27 13.2
003B598A 2019-03-31 09:34:15 20.6 27 12.8
003B598A 2019-03-31 09:02:26 20.6 27 12.8
003B598A 2019-03-31 08:30:40 20.6 27 12.8
003B598A 2019-03-31 07:58:48 20.7 28 13.1
003B598A 2019-03-31 07:27:02 20.7 28 13.3
003B598A 2019-03-31 06:55:12 20.7 28 13.4
003B598A 2019-03-31 06:23:24 20.7 28 13.2
003B598A 2019-03-31 05:51:35 20.7 28 13.2
003B598A 2019-03-31 05:19:47 20.7 28 13.4
003B598A 2019-03-31 04:47:25 20.7 28 13
003B598A 2019-03-31 04:15:38 20.7 27 12.9
003B598A 2019-03-31 02:43:48 20.7 27 12.6
003B598A 2019-03-31 02:12:00 20.7 27 12.8
003B598A 2019-03-31 01:40:15 20.7 27 12.8
003B598A 2019-03-31 01:08:25 20.7 27 12.9
003B598A 2019-03-31 00:36:38 20.7 27 12.9
003B598A 2019-03-31 00:04:56 20.8 27 13
003B598A 2019-03-30 23:33:03 20.7 27 13.4
003B598A 2019-03-30 23:01:16 20.8 27 13.6
003B598A 2019-03-30 22:29:28 20.8 27 14
003B598A 2019-03-30 21:57:40 20.8 27 18.1
003B598A 2019-03-30 21:25:53 20.9 27 18
003B598A 2019-03-30 20:54:08 20.9 27 18
003B598A 2019-03-30 19:50:33 21 27 18
003B598A 2019-03-30 19:18:46 21 27 18
003B598A 2019-03-30 18:46:56 21 27 18
003B598A 2019-03-30 18:15:11 21 27 18
003B598A 2019-03-30 17:43:22 21 27 18
003B598A 2019-03-30 17:11:35 21 27 17.9
003B598A 2019-03-30 16:39:52 21 27 17.8
003B598A 2019-03-30 16:08:01 21 27 17.8
003B598A 2019-03-30 15:36:16 21 27 17.8
003B598A 2019-03-30 15:04:31 20.9 27 17.8
003B598A 2019-03-30 14:32:40 20.9 27 17.8
003B598A 2019-03-30 14:00:53 20.9 27 17.8
003B598A 2019-03-30 13:29:07 20.9 27 17.8
003B598A 2019-03-30 12:57:17 20.9 27 17.8
003B598A 2019-03-30 12:25:33 20.8 27 17.7
003B598A 2019-03-30 11:53:44 20.8 27 20
003B598A 2019-03-30 11:22:01 20.8 27 19.9
003B598A 2019-03-30 10:50:11 20.8 27 20
003B598A 2019-03-30 10:18:22 20.7 27 19.9
003B598A 2019-03-30 09:46:31 20.7 27 19.8
003B598A 2019-03-30 09:14:43 20.7 27 19.8
003B598A 2019-03-30 08:42:54 20.7 27 19.7
003B598A 2019-03-30 08:11:08 20.7 27 17.3
003B598A 2019-03-30 07:39:23 20.7 27 17.3
003B598A 2019-03-30 07:07:37 20.7 27 17.2
003B598A 2019-03-30 06:35:52 20.7 27 17.2
003B598A 2019-03-30 06:04:04 20.7 27 17.2
003B598A 2019-03-30 05:32:15 20.8 27 17.2
003B598A 2019-03-30 05:00:27 20.8 27 17.3
003B598A 2019-03-30 04:28:42 20.8 27 17.3
003B598A 2019-03-30 03:56:52 20.8 27 17.4
003B598A 2019-03-30 03:25:06 20.8 27 17.4
003B598A 2019-03-30 02:53:21 20.8 28 19.7
003B598A 2019-03-30 02:21:35 20.9 28 19.7
003B598A 2019-03-30 01:49:50 20.9 28 19.6
003B598A 2019-03-30 00:45:40 21 28 19.6
003B598A 2019-03-30 00:13:53 21 28 19.6
003B598A 2019-03-29 23:42:06 21 28 19.6
003B598A 2019-03-29 23:10:17 21 28 19.6
003B598A 2019-03-29 22:38:27 21 28 19.6
003B598A 2019-03-29 22:06:39 21.1 28 17.2
003B598A 2019-03-29 21:34:53 21.1 28 17.2
003B598A 2019-03-29 21:03:09 21.1 28 17.1
003B598A 2019-03-29 20:31:26 21.1 28 17.2
003B598A 2019-03-29 19:59:35 21 28 17.2
003B598A 2019-03-29 18:56:02 21.1 28 17.2
003B598A 2019-03-29 17:20:44 21.2 28 17.2
003B598A 2019-03-29 16:49:00 21.2 28 17.2
003B598A 2019-03-29 16:17:08 21.2 28 17.2
003B598A 2019-03-29 15:45:21 21.2 28 17.3
003B598A 2019-03-29 15:13:35 21.2 28 17.4
003B598A 2019-03-29 12:02:52 21.1 27 17.4
003B598A 2019-03-29 11:31:08 21.1 27 17.4
003B598A 2019-03-29 10:59:25 21.1 27 17.4
003B598A 2019-03-29 09:55:56 21 26 17.3
003B598A 2019-03-29 09:24:09 20.9 26 17.3
003B598A 2019-03-29 08:20:43 20.9 25 17.3
003B598A 2019-03-29 07:17:04 20.7 25 11.6
003B598A 2019-03-29 05:41:46 20.8 25 11.9
003B598A 2019-03-29 05:10:04 20.9 25 12
003B598A 2019-03-29 04:06:31 21 25 12
003B598A 2019-03-29 02:31:16 21.1 25 11.9
003B598A 2019-03-29 01:59:34 21.1 25 12.2
003B598A 2019-03-29 00:24:23 21.2 24 12.5
003B598A 2019-03-28 23:20:48 21.2 24 12.5
003B598A 2019-03-28 22:16:35 21.2 24 12.5
003B598A 2019-03-28 21:13:10 21.3 24 12.7
003B598A 2019-03-28 20:09:43 21.3 24 12.7
003B598A 2019-03-28 19:37:55 21.2 24 12.7
003B598A 2019-03-28 18:02:39 21.3 24 12.7
003B598A 2019-03-28 16:59:04 21.3 24 12.9
003B598A 2019-03-28 15:55:36 21.2 23 12.8
003B598A 2019-03-28 14:52:01 21.2 23 13.1
003B598A 2019-03-28 13:48:33 21.1 22 13.3
003B598A 2019-03-28 13:16:44 21.1 22 13.6
003B598A 2019-03-28 12:45:00 21 21 13.4
003B598A 2019-03-28 12:13:11 21 21 13.5
003B598A 2019-03-28 11:41:27 21 21 13.7
003B598A 2019-03-28 11:09:39 21 21 13.6
003B598A 2019-03-28 10:06:07 20.9 20 13.6
003B598A 2019-03-28 09:34:17 20.9 20 13.7
003B598A 2019-03-28 07:58:58 20.8 19 18
003B598A 2019-03-28 07:27:12 20.8 19 17.9
003B598A 2019-03-28 06:55:22 20.8 19 20
003B598A 2019-03-28 06:23:38 20.8 19 21.5
003B598A 2019-03-28 05:51:52 20.8 19 21.5
003B598A 2019-03-28 05:20:03 20.8 19 22.6
003B598A 2019-03-28 04:48:19 20.8 19 22.6
003B598A 2019-03-28 04:16:31 20.8 19 22.6
003B598A 2019-03-28 03:44:48 20.8 18 22.6
003B598A 2019-03-28 02:41:12 20.8 18 22.6
003B598A 2019-03-28 02:09:31 20.9 18 22.6
003B598A 2019-03-28 01:37:44 20.9 18 22.7
003B598A 2019-03-28 00:34:10 21 17 22.7
003B598A 2019-03-28 00:02:20 21 17 22.7
003B598A 2019-03-27 23:30:26 21 17 22.6
003B598A 2019-03-27 22:58:37 21 17 22.7
003B598A 2019-03-27 22:26:54 21 16 22.7
003B598A 2019-03-27 21:55:02 21 16 22.7
003B598A 2019-03-27 21:23:17 21.1 16 22.7
003B598A 2019-03-27 20:51:30 21.1 16 22.7
003B598A 2019-03-27 19:47:20 21.1 16 22.7
003B598A 2019-03-27 18:43:42 21.3 15 22.7
003B598A 2019-03-27 18:11:54 21.3 15 22.7
003B598A 2019-03-27 17:40:09 21.4 16 22.7
003B598A 2019-03-27 17:08:19 21.4 16 22.7
003B598A 2019-03-27 16:36:35 21.4 16 21.7
003B598A 2019-03-27 13:25:37 21 16 21.7
003B598A 2019-03-27 12:21:54 20.9 15 20.4
003B598A 2019-03-27 11:50:05 20.8 15 20.4
003B598A 2019-03-27 11:18:16 20.8 15 20.4
003B598A 2019-03-27 10:46:31 20.8 15 18.5
003B598A 2019-03-27 10:14:44 20.7 15 18.6
003B598A 2019-03-27 09:42:52 20.7 15 18.5
003B598A 2019-03-27 09:11:04 20.7 14 18.6
003B598A 2019-03-27 08:39:15 20.6 14 18.7
003B598A 2019-03-27 08:07:26 20.7 14 18.7
003B598A 2019-03-27 07:35:36 20.6 14 18.6
003B598A 2019-03-27 07:03:48 20.7 14 18.6
003B598A 2019-03-27 06:31:59 20.7 14 18.6
003B598A 2019-03-27 06:00:10 20.6 14 18.7
003B598A 2019-03-27 05:28:26 20.7 14 18.6
003B598A 2019-03-27 04:56:41 20.7 14 18.5
003B598A 2019-03-27 04:24:54 20.7 14 18.5
003B598A 2019-03-27 03:53:06 20.7 14 18.4
003B598A 2019-03-27 03:21:21 20.7 14 18.5
003B598A 2019-03-27 02:49:36 20.8 14 18.5
003B598A 2019-03-27 02:17:52 20.8 14 18.5
003B598A 2019-03-27 01:46:03 20.8 14 18.5
003B598A 2019-03-27 01:14:16 20.9 14 18.6
003B598A 2019-03-27 00:42:29 20.9 14 18.5
003B598A 2019-03-27 00:10:41 20.9 14 18.5
003B598A 2019-03-26 23:38:55 21 14 18.6
003B598A 2019-03-26 23:07:05 21 14 18.6
003B598A 2019-03-26 22:35:15 21.1 14 15.2
003B598A 2019-03-26 22:03:30 21.1 14 15.4
003B598A 2019-03-26 21:31:36 21.1 14 15.3
003B598A 2019-03-26 20:59:47 21.2 14 14.9
003B598A 2019-03-26 20:28:01 21.2 14 15.1
003B598A 2019-03-26 19:56:14 21.2 14 14.9
003B598A 2019-03-26 19:24:23 21.2 14 14.7
003B598A 2019-03-26 18:52:38 21.3 14 14.2
003B598A 2019-03-26 18:20:48 21.4 14 14.4
003B598A 2019-03-26 17:16:27 21.4 14 14.2
003B598A 2019-03-26 16:44:38 21.4 15 14.4
003B598A 2019-03-26 16:12:49 21.4 15 14.6
003B598A 2019-03-26 15:41:05 21.3 15 14.7
003B598A 2019-03-26 15:09:19 21.2 15 14.9
003B598A 2019-03-26 14:37:32 21.1 16 14.9
003B598A 2019-03-26 14:05:42 21 16 15
003B598A 2019-03-26 13:33:54 20.9 16 15
003B598A 2019-03-26 13:02:09 20.7 16 14.9
003B598A 2019-03-26 12:30:19 20.7 16 14.7
003B598A 2019-03-26 11:26:53 20.6 17 14.5
003B598A 2019-03-26 10:55:03 20.6 17 14.3
003B598A 2019-03-26 09:51:31 20.6 18 14.4
003B598A 2019-03-26 09:19:47 20.6 19 14.5
003B598A 2019-03-26 08:47:56 20.6 19 14.3
003B598A 2019-03-26 08:16:09 20.6 20 14.7
003B598A 2019-03-26 07:44:22 20.6 20 15
003B598A 2019-03-26 07:12:37 20.6 20 14.6
003B598A 2019-03-26 06:40:55 20.6 20 14.7
003B598A 2019-03-26 06:09:10 20.6 20 14.6
003B598A 2019-03-26 05:37:24 20.6 20 14.7
003B598A 2019-03-26 05:05:39 20.6 20 14.7
003B598A 2019-03-26 04:33:52 20.6 20 14.7
003B598A 2019-03-26 04:02:04 20.6 20 14.7
003B598A 2019-03-26 02:58:37 20.6 20 14.6
003B598A 2019-03-26 02:26:49 20.6 20 14.7
003B598A 2019-03-26 01:55:00 20.7 20 14.7
003B598A 2019-03-26 01:23:10 20.7 20 14.3
003B598A 2019-03-26 00:51:25 20.7 20 14.2
003B598A 2019-03-26 00:19:35 20.7 20 14.1
003B598A 2019-03-25 23:47:49 20.8 20 14.2
003B598A 2019-03-25 23:16:02 20.8 20 13.9
003B598A 2019-03-25 22:44:16 20.8 20 13.7
003B598A 2019-03-25 22:12:32 20.8 20 13.7
003B598A 2019-03-25 21:40:43 20.9 20 13.8
003B598A 2019-03-25 21:08:57 20.9 20 18
003B598A 2019-03-25 20:37:09 20.9 20 18.1
003B598A 2019-03-25 20:05:23 20.9 20 18.1
003B598A 2019-03-25 19:33:34 20.9 20 18
003B598A 2019-03-25 19:01:46 20.9 20 17.9
003B598A 2019-03-25 18:29:59 21 21 17.7
003B598A 2019-03-25 17:26:34 21.1 22 17.6
003B598A 2019-03-25 16:54:45 21.1 23 17.6
003B598A 2019-03-25 16:23:03 21.1 23 17.7
003B598A 2019-03-25 15:51:11 21.1 23 17.7
003B598A 2019-03-25 15:18:49 21.1 23 17.6
003B598A 2019-03-25 14:47:03 21.1 24 17.5
003B598A 2019-03-25 14:15:14 21.1 24 17.6
003B598A 2019-03-25 13:43:26 21 24 17.6
003B598A 2019-03-25 13:11:38 20.9 24 17.5
003B598A 2019-03-25 12:39:53 20.8 23 17.6
003B598A 2019-03-25 12:08:03 20.8 23 17.6
003B598A 2019-03-25 11:04:30 20.7 24 17.5
003B598A 2019-03-25 10:32:41 20.6 24 17.5
003B598A 2019-03-25 10:00:53 20.5 24 17.6
003B598A 2019-03-25 09:29:06 20.3 23 17.7
003B598A 2019-03-25 08:57:17 20.3 23 17.7
003B598A 2019-03-25 08:25:27 20.3 23 17.7
003B598A 2019-03-25 07:53:40 20.3 23 17.7
003B598A 2019-03-25 07:21:56 20.3 23 17.7
003B598A 2019-03-25 06:50:05 20.3 23 13.2
003B598A 2019-03-25 06:18:17 20.3 23 13.4
003B598A 2019-03-25 05:14:46 20.3 23 13.4
003B598A 2019-03-25 04:42:54 20.3 23 13.7
003B598A 2019-03-25 04:11:06 20.3 23 13.8
003B598A 2019-03-25 03:39:18 20.3 23 13.7
003B598A 2019-03-25 03:07:30 20.4 23 13.6
003B598A 2019-03-25 02:35:43 20.4 23 13.4
003B598A 2019-03-25 02:04:00 20.4 23 13.2
003B598A 2019-03-25 01:32:09 20.5 23 13.5
003B598A 2019-03-25 01:00:24 20.5 23 13.8
003B598A 2019-03-25 00:28:38 20.5 23 13.7
003B598A 2019-03-24 23:56:52 20.6 23 13.7
003B598A 2019-03-24 23:25:05 20.6 23 18
003B598A 2019-03-24 22:53:17 20.7 23 18.2
003B598A 2019-03-24 22:21:27 20.7 23 18.1
003B598A 2019-03-24 21:49:38 20.8 23 18.1
003B598A 2019-03-24 21:17:51 20.8 23 18.1
003B598A 2019-03-24 20:46:01 20.8 23 18.1
003B598A 2019-03-24 19:42:26 20.9 23 18
003B598A 2019-03-24 19:10:39 21 23 17.9
003B598A 2019-03-24 18:38:54 21 23 18
003B598A 2019-03-24 18:07:10 21 23 18.1
003B598A 2019-03-24 17:35:17 21 23 18.2
003B598A 2019-03-24 17:03:30 21 23 18.2
003B598A 2019-03-24 16:31:47 20.9 24 18.2
003B598A 2019-03-24 15:59:58 20.8 24 18.1
003B598A 2019-03-24 15:28:13 20.7 24 18.1
003B598A 2019-03-24 14:56:32 20.5 24 18.1
003B598A 2019-03-24 14:24:44 20.4 24 18
003B598A 2019-03-24 13:52:55 20.3 23 18
003B598A 2019-03-24 13:21:10 20.3 23 18.1
003B598A 2019-03-24 12:48:51 20.3 23 18.2
003B598A 2019-03-24 12:17:07 20.3 23 18.2
003B598A 2019-03-24 11:45:19 20.3 23 18.1
003B598A 2019-03-24 11:13:29 20.3 23 18
003B598A 2019-03-24 10:41:38 20.2 23 18.1
003B598A 2019-03-24 10:09:50 20.3 23 18.1
003B598A 2019-03-24 09:38:00 20.3 23 18.1
003B598A 2019-03-24 09:06:13 20.2 23 17.9
003B598A 2019-03-24 08:34:27 20.3 23 17.9
003B598A 2019-03-24 08:02:38 20.3 23 17.9
003B598A 2019-03-24 07:30:45 20.2 23 17.9
003B598A 2019-03-24 06:58:56 20.2 23 17.9
003B598A 2019-03-24 05:55:18 20.3 23 17.8
003B598A 2019-03-24 05:23:32 20.3 23 17.9
003B598A 2019-03-24 04:51:46 20.3 23 17.9
003B598A 2019-03-24 04:19:57 20.3 23 17.9
003B598A 2019-03-24 03:48:10 20.3 23 17.7
003B598A 2019-03-24 03:16:23 20.3 23 17.7
003B598A 2019-03-24 02:12:48 20.3 23 17.7
003B598A 2019-03-24 01:41:01 20.3 23 17.7
003B598A 2019-03-24 01:09:14 20.3 23 17.9
003B598A 2019-03-24 00:37:26 20.3 23 17.9
003B598A 2019-03-24 00:05:39 20.3 23 18.1
003B598A 2019-03-23 23:33:48 20.3 23 18.2
003B598A 2019-03-23 23:01:59 20.3 22 18.2
003B598A 2019-03-23 22:30:10 20.3 22 20.2
003B598A 2019-03-23 21:58:24 20.3 22 20.2
003B598A 2019-03-23 21:26:33 20.3 22 21.6
003B598A 2019-03-23 20:54:43 20.3 22 21.6
003B598A 2019-03-23 20:22:54 20.4 22 21.6
003B598A 2019-03-23 19:51:04 20.4 22 21.6
003B598A 2019-03-23 19:19:14 20.4 22 20.2
003B598A 2019-03-23 18:47:24 20.4 22 20.3
003B598A 2019-03-23 18:15:35 20.4 21 20.3
003B598A 2019-03-23 17:43:46 20.4 21 20.3
003B598A 2019-03-23 17:11:56 20.4 21 20.2
003B598A 2019-03-23 16:40:10 20.4 21 20.3
003B598A 2019-03-23 15:36:25 20.4 21 20.3
003B598A 2019-03-23 15:04:38 20.4 21 20.4
003B598A 2019-03-23 14:01:02 20.4 21 20.4
003B598A 2019-03-23 13:29:15 20.4 21 20.4
003B598A 2019-03-23 12:57:29 20.4 21 20.4
003B598A 2019-03-23 12:25:44 20.4 21 21.7
003B598A 2019-03-23 11:53:55 20.4 20 21.7
003B598A 2019-03-23 11:22:03 20.4 20 21.7
003B598A 2019-03-23 10:50:15 20.4 20 21.7
003B598A 2019-03-23 09:14:06 20.4 20 21.6
003B598A 2019-03-23 08:42:16 20.5 20 21.5
003B598A 2019-03-23 07:38:38 20.5 20 21.6
003B598A 2019-03-23 07:06:48 20.5 20 21.6
003B598A 2019-03-23 06:35:00 20.5 20 20.1
003B598A 2019-03-23 06:03:11 20.5 20 20.1
003B598A 2019-03-23 05:31:23 20.5 19 18
003B598A 2019-03-23 04:27:48 20.6 19 18
003B598A 2019-03-23 03:56:00 20.6 19 18
003B598A 2019-03-23 03:24:08 20.6 19 20.1
003B598A 2019-03-23 02:52:22 20.7 19 20.1
003B598A 2019-03-23 02:20:31 20.7 19 20.1
003B598A 2019-03-23 01:48:43 20.8 19 20.1
003B598A 2019-03-23 01:16:57 20.8 19 20.1
003B598A 2019-03-23 00:45:15 20.9 18 20.1
003B598A 2019-03-23 00:13:24 21 18 20.1
003B598A 2019-03-22 23:41:38 21.1 18 20
003B598A 2019-03-22 23:09:51 21.1 18 19.9
003B598A 2019-03-22 22:38:06 21.2 18 19.8
003B598A 2019-03-22 21:34:28 21.3 18 19.8
003B598A 2019-03-22 21:02:43 21.4 18 19.8
003B598A 2019-03-22 20:30:57 21.4 17 17.5
003B598A 2019-03-22 19:59:10 21.3 17 17.6
003B598A 2019-03-22 19:27:21 21.3 17 17.7
003B598A 2019-03-22 18:55:30 21.3 17 17.7
003B598A 2019-03-22 18:23:41 21.3 17 17.7
003B598A 2019-03-22 17:51:54 21.3 17 17.7
003B598A 2019-03-22 17:20:07 21.3 17 17.6
003B598A 2019-03-22 16:48:14 21.2 17 17.6
003B598A 2019-03-22 16:16:27 21.2 17 17.6
003B598A 2019-03-22 14:41:06 20.8 18 17.6
003B598A 2019-03-22 12:02:02 20.7 20 17.6
003B598A 2019-03-22 11:30:14 20.7 21 17.8
003B598A 2019-03-22 10:58:25 20.7 21 17.8
003B598A 2019-03-22 10:26:37 20.7 22 13.8
003B598A 2019-03-22 09:54:49 20.7 22 13.7
003B598A 2019-03-22 09:23:05 20.6 23 14
003B598A 2019-03-22 08:51:18 20.6 23 14
003B598A 2019-03-22 08:19:32 20.6 23 14.2
003B598A 2019-03-22 07:47:00 20.6 24 14.3
003B598A 2019-03-22 07:15:13 20.6 24 14.4
003B598A 2019-03-22 06:43:29 20.6 24 14.5
003B598A 2019-03-22 06:11:39 20.6 25 14.6
003B598A 2019-03-22 05:39:53 20.6 25 14.8
003B598A 2019-03-22 05:08:08 20.6 25 15.1
003B598A 2019-03-22 04:36:21 20.6 26 15.4
003B598A 2019-03-22 04:04:35 20.7 26 15.3
003B598A 2019-03-22 03:32:47 20.7 26 15.2
003B598A 2019-03-22 03:00:58 20.7 27 14.9
003B598A 2019-03-22 02:29:13 20.7 27 14.6
003B598A 2019-03-22 01:57:28 20.7 27 14.7
003B598A 2019-03-22 01:25:45 20.7 27 14.8
003B598A 2019-03-22 00:53:59 20.8 28 14.8
003B598A 2019-03-22 00:22:16 20.8 28 14.8
003B598A 2019-03-21 23:50:32 20.8 28 14.7
003B598A 2019-03-21 23:18:41 20.8 28 14.7
003B598A 2019-03-21 22:46:55 20.9 28 14.8
003B598A 2019-03-21 22:15:10 20.9 28 14.5
003B598A 2019-03-21 21:43:24 20.9 28 14.2
003B598A 2019-03-21 21:11:36 20.9 28 13.8
003B598A 2019-03-21 20:39:49 21 28 14
003B598A 2019-03-21 20:08:01 21 28 13.7
003B598A 2019-03-21 19:36:14 21 28 13.9
003B598A 2019-03-21 18:32:38 21.1 27 13.9
003B598A 2019-03-21 18:00:53 21.2 27 13.8
003B598A 2019-03-21 17:29:03 21.2 27 13.9
003B598A 2019-03-21 16:57:17 21.3 27 13.6
003B598A 2019-03-21 16:25:27 21.3 27 13.6
003B598A 2019-03-21 15:53:38 21.4 28 13.5
003B598A 2019-03-21 15:21:48 21.4 28 13.6
003B598A 2019-03-21 14:49:59 21.3 27 13.4
003B598A 2019-03-21 14:18:13 21.2 27 13.3
003B598A 2019-03-21 13:46:26 21.1 26 13.3
003B598A 2019-03-21 12:42:58 20.9 25 13.5
003B598A 2019-03-21 11:39:23 20.8 25 13.9
003B598A 2019-03-21 11:07:39 20.8 25 13.9
003B598A 2019-03-21 10:35:50 20.7 25 13.7
003B598A 2019-03-21 10:04:09 20.7 25 13.7
003B598A 2019-03-21 09:32:19 20.6 25 13.6
003B598A 2019-03-21 09:00:32 20.6 25 13.5
003B598A 2019-03-21 08:28:43 20.6 25 13.6
003B598A 2019-03-21 07:56:55 20.6 25 13.9
003B598A 2019-03-21 07:25:10 20.5 25 13.9
003B598A 2019-03-21 06:53:25 20.6 25 13.8
003B598A 2019-03-21 06:21:40 20.6 25 13.8
003B598A 2019-03-21 05:49:55 20.6 25 13.4
003B598A 2019-03-21 05:17:29 20.6 25 13.6
003B598A 2019-03-21 04:45:44 20.6 25 13.4
003B598A 2019-03-21 04:13:57 20.6 25 13.1
003B598A 2019-03-21 03:42:09 20.6 25 13.1
003B598A 2019-03-21 03:10:21 20.6 26 12.8
003B598A 2019-03-21 02:38:34 20.6 26 13.1
003B598A 2019-03-21 02:06:51 20.6 26 13.1
003B598A 2019-03-21 01:34:58 20.6 26 17.7
003B598A 2019-03-21 01:03:13 20.6 26 17.6
003B598A 2019-03-21 00:31:24 20.7 26 17.6
003B598A 2019-03-20 23:59:34 20.6 26 17.6
003B598A 2019-03-20 23:27:45 20.7 26 17.6
003B598A 2019-03-20 22:55:58 20.7 26 17.6
003B598A 2019-03-20 22:24:16 20.7 26 17.5
003B598A 2019-03-20 21:52:30 20.7 26 17.6
003B598A 2019-03-20 21:20:43 20.7 26 17.6
003B598A 2019-03-20 20:48:58 20.8 26 17.6
003B598A 2019-03-20 20:17:13 20.8 26 17.6
003B598A 2019-03-20 19:45:25 20.8 26 17.6
003B598A 2019-03-20 19:13:38 20.8 26 17.6
003B598A 2019-03-20 18:41:52 20.9 26 17.5
003B598A 2019-03-20 18:10:07 21 25 17.7
003B598A 2019-03-20 17:38:24 21 25 17.7
003B598A 2019-03-20 17:06:35 21 25 17.8
003B598A 2019-03-20 16:34:48 21.1 25 17.8
003B598A 2019-03-20 15:31:14 21.2 26 17.7
003B598A 2019-03-20 14:59:27 21.1 25 17.8
003B598A 2019-03-20 14:27:34 21.1 25 17.8
003B598A 2019-03-20 13:55:47 21.1 25 17.9
003B598A 2019-03-20 13:23:58 21 25 18
003B598A 2019-03-20 12:20:23 20.9 25 18.1
003B598A 2019-03-20 11:16:53 20.8 25 18.2
003B598A 2019-03-20 10:45:05 20.7 25 14.4
003B598A 2019-03-20 09:41:26 20.5 25 14.2
003B598A 2019-03-20 08:37:53 20.5 25 18.2
003B598A 2019-03-20 07:34:16 20.6 26 18.1
003B598A 2019-03-20 07:02:29 20.5 26 18.1
003B598A 2019-03-20 06:30:42 20.5 26 18.2
003B598A 2019-03-20 05:58:56 20.6 27 18.2
003B598A 2019-03-20 05:27:06 20.5 27 18.1
003B598A 2019-03-20 04:55:19 20.6 27 18.1
003B598A 2019-03-20 04:23:34 20.6 27 18.1
003B598A 2019-03-20 03:51:50 20.5 27 18.1
003B598A 2019-03-20 03:20:07 20.6 27 18.2
003B598A 2019-03-20 02:47:47 20.6 27 18
003B598A 2019-03-20 02:16:00 20.6 28 18
003B598A 2019-03-20 01:44:17 20.6 28 18
003B598A 2019-03-20 01:12:25 20.6 28 18
003B598A 2019-03-20 00:40:41 20.6 28 18
003B598A 2019-03-20 00:08:57 20.7 28 18
003B598A 2019-03-19 23:37:14 20.7 28 18
003B598A 2019-03-19 23:05:21 20.7 28 18
003B598A 2019-03-19 22:33:34 20.7 28 17.9
003B598A 2019-03-19 22:01:49 20.8 28 17.7
003B598A 2019-03-19 21:30:03 20.8 29 17.6
003B598A 2019-03-19 20:58:22 20.8 29 17.6
003B598A 2019-03-19 20:26:35 20.9 29 17.4
003B598A 2019-03-19 19:54:48 20.9 29 17.5
003B598A 2019-03-19 19:23:02 21 29 12.2
003B598A 2019-03-19 18:51:17 21 29 12.1
003B598A 2019-03-19 18:19:27 21.1 29 12
003B598A 2019-03-19 17:47:40 21.2 29 11.8
003B598A 2019-03-19 17:15:50 21.3 30 11.7
003B598A 2019-03-19 16:43:59 21.3 30 11.7
003B598A 2019-03-19 16:12:11 21.2 29 11.7
003B598A 2019-03-19 15:40:23 21.1 29 11.7
003B598A 2019-03-19 15:08:34 21.2 29 11.8
003B598A 2019-03-19 14:05:01 21.2 29 11.5
003B598A 2019-03-19 11:26:09 20.9 29 11.4
003B598A 2019-03-19 10:54:16 20.8 29 11.4
003B598A 2019-03-19 09:18:55 20.6 27 11.1
003B598A 2019-03-19 08:47:07 20.6 27 11
003B598A 2019-03-19 08:15:21 20.5 27 11.4
003B598A 2019-03-19 07:11:46 20.5 27 11.4
003B598A 2019-03-19 06:39:59 20.5 27 11.7
003B598A 2019-03-19 06:08:15 20.5 27 11.6
003B598A 2019-03-19 05:04:42 20.6 27 11.6
003B598A 2019-03-19 04:32:55 20.5 27 11.9
003B598A 2019-03-19 04:01:04 20.6 27 11.9
003B598A 2019-03-19 03:29:17 20.6 27 11.9
003B598A 2019-03-19 02:57:30 20.6 27 12
003B598A 2019-03-19 01:53:55 20.6 27 12.1
003B598A 2019-03-19 00:18:02 20.6 27 12.2
003B598A 2019-03-18 22:42:41 20.6 27 12.4
003B598A 2019-03-18 22:10:54 20.7 27 12.8
003B598A 2019-03-18 20:35:35 20.7 27 12.8
003B598A 2019-03-18 19:32:00 20.7 27 12.6
003B598A 2019-03-18 17:56:38 20.9 27 12.5
003B598A 2019-03-18 17:24:51 20.9 27 12.6
003B598A 2019-03-18 16:53:03 21 27 12.7
003B598A 2019-03-18 15:17:50 20.8 27 13.3
003B598A 2019-03-18 12:38:50 20.7 27 13.4
003B598A 2019-03-18 12:07:05 20.7 27 13.5
003B598A 2019-03-18 11:35:22 20.7 27 13.7
003B598A 2019-03-18 11:03:33 20.7 27 13.7
003B598A 2019-03-18 10:31:46 20.7 27 13.8
003B598A 2019-03-18 09:59:59 20.6 27 13.8
003B598A 2019-03-18 09:28:13 20.6 27 13.4
003B598A 2019-03-18 08:56:28 20.6 27 13.4
003B598A 2019-03-18 08:24:41 20.5 27 13.2
003B598A 2019-03-18 07:52:56 20.6 27 13.4
003B598A 2019-03-18 07:21:11 20.5 27 13.6
003B598A 2019-03-18 06:49:25 20.6 27 13.5
003B598A 2019-03-18 06:17:40 20.5 27 13.5
003B598A 2019-03-18 05:14:08 20.6 27 13.5
003B598A 2019-03-18 04:42:22 20.5 27 13.4
003B598A 2019-03-18 04:10:30 20.6 27 13.7
003B598A 2019-03-18 03:38:41 20.6 27 13.6
003B598A 2019-03-18 03:06:51 20.6 27 13.5
003B598A 2019-03-18 02:35:02 20.5 27 13.1
003B598A 2019-03-18 02:03:12 20.5 26 13.3
003B598A 2019-03-18 01:31:23 20.6 26 13.2
003B598A 2019-03-18 00:59:34 20.5 26 13.4
003B598A 2019-03-18 00:27:49 20.5 26 13.4
003B598A 2019-03-17 23:24:13 20.5 26 13.5
003B598A 2019-03-17 22:52:24 20.6 26 13.1
003B598A 2019-03-17 22:20:33 20.6 26 12.9
003B598A 2019-03-17 21:48:15 20.6 26 12.7
003B598A 2019-03-17 21:16:24 20.5 26 12.9
003B598A 2019-03-17 20:44:33 20.6 26 13
003B598A 2019-03-17 20:12:44 20.5 26 13.1
003B598A 2019-03-17 18:05:33 20.5 26 13.1
003B598A 2019-03-17 17:33:47 20.6 26 13.5
003B598A 2019-03-17 17:02:00 20.6 26 13.6
003B598A 2019-03-17 16:30:14 20.6 26 17.9
003B598A 2019-03-17 15:58:26 20.6 26 17.8
003B598A 2019-03-17 15:26:34 20.6 26 17.9
003B598A 2019-03-17 14:22:55 20.6 27 17.8
003B598A 2019-03-17 13:51:08 20.6 27 18
003B598A 2019-03-17 13:19:21 20.6 27 18.1
003B598A 2019-03-17 12:47:32 20.6 27 18.1
003B598A 2019-03-17 12:15:45 20.6 26 18
003B598A 2019-03-17 11:44:00 20.6 27 17.9
003B598A 2019-03-17 11:12:11 20.6 26 17.9
003B598A 2019-03-17 10:40:21 20.6 26 18
003B598A 2019-03-17 10:08:34 20.6 27 18.1
003B598A 2019-03-17 09:36:41 20.6 27 18.1
003B598A 2019-03-17 08:33:05 20.6 27 18
003B598A 2019-03-17 08:01:15 20.6 27 18
003B598A 2019-03-17 07:29:24 20.6 27 17.9
003B598A 2019-03-17 06:57:37 20.6 27 17.9
003B598A 2019-03-17 06:25:46 20.6 27 17.8
003B598A 2019-03-17 05:53:56 20.6 27 17.9
003B598A 2019-03-17 05:22:07 20.6 27 17.9
003B598A 2019-03-17 04:50:19 20.6 27 17.9
003B598A 2019-03-17 04:18:30 20.6 27 17.8
003B598A 2019-03-17 03:14:54 20.6 27 17.8
003B598A 2019-03-17 02:43:04 20.6 27 17.8
003B598A 2019-03-17 02:11:15 20.6 27 17.9
003B598A 2019-03-17 01:39:29 20.6 27 13.4
003B598A 2019-03-17 01:07:43 20.6 27 13.5
003B598A 2019-03-17 00:36:01 20.6 27 13.4
003B598A 2019-03-17 00:04:12 20.6 27 13.5
003B598A 2019-03-16 23:32:27 20.6 27 13.5
003B598A 2019-03-16 23:00:38 20.6 27 13.3
003B598A 2019-03-16 22:28:52 20.6 27 13.3
003B598A 2019-03-16 21:57:08 20.6 26 13.5
003B598A 2019-03-16 21:25:18 20.6 26 13.5
003B598A 2019-03-16 20:53:30 20.6 26 13.4
003B598A 2019-03-16 20:21:46 20.6 26 13.4
003B598A 2019-03-16 19:49:57 20.6 26 13.4
003B598A 2019-03-16 19:17:36 20.6 26 13.7
003B598A 2019-03-16 18:14:00 20.6 26 13.6
003B598A 2019-03-16 17:42:13 20.6 26 13.9
003B598A 2019-03-16 17:10:25 20.6 26 13.9
003B598A 2019-03-16 16:38:36 20.6 26 14
003B598A 2019-03-16 16:06:53 20.6 26 14.1
003B598A 2019-03-16 15:35:05 20.6 26 14.1
003B598A 2019-03-16 15:03:18 20.6 26 13.8
003B598A 2019-03-16 14:31:27 20.6 26 13.9
003B598A 2019-03-16 13:59:40 20.6 26 13.9
003B598A 2019-03-16 13:27:52 20.6 26 13.7
003B598A 2019-03-16 12:56:08 20.6 26 13.3
003B598A 2019-03-16 12:24:25 20.6 26 13.3
003B598A 2019-03-16 11:52:39 20.6 26 13.2
003B598A 2019-03-16 11:20:54 20.6 26 13.2
003B598A 2019-03-16 10:49:10 20.6 26 13
003B598A 2019-03-16 10:17:27 20.6 26 12.8
003B598A 2019-03-16 09:45:42 20.6 26 12.8
003B598A 2019-03-16 09:13:58 20.6 26 12.9
003B598A 2019-03-16 08:42:12 20.6 26 12.5
003B598A 2019-03-16 08:10:25 20.6 26 12.8
003B598A 2019-03-16 07:38:38 20.6 26 12.8
003B598A 2019-03-16 07:06:54 20.6 26 12.6
003B598A 2019-03-16 06:35:08 20.6 26 12.5
003B598A 2019-03-16 06:03:22 20.6 26 12.5
003B598A 2019-03-16 05:31:37 20.6 26 12.3
003B598A 2019-03-16 04:59:50 20.6 26 12.4
003B598A 2019-03-16 04:28:05 20.6 26 12.1
003B598A 2019-03-16 03:56:20 20.6 26 11.9
003B598A 2019-03-16 03:24:35 20.6 26 11.9
003B598A 2019-03-16 02:52:51 20.6 26 11.4
003B598A 2019-03-16 02:21:11 20.6 26 11.5
003B598A 2019-03-16 01:49:24 20.6 26 11.8
003B598A 2019-03-16 01:17:40 20.6 26 11.8
003B598A 2019-03-16 00:45:57 20.6 26 11.8
003B598A 2019-03-15 23:42:32 20.7 26 12.2
003B598A 2019-03-15 23:10:45 20.7 27 12.2
003B598A 2019-03-15 22:38:59 20.7 27 12.2
003B598A 2019-03-15 22:07:13 20.7 27 12.4
003B598A 2019-03-15 21:35:21 20.8 27 12.5
003B598A 2019-03-15 21:03:34 20.8 26 12.7
003B598A 2019-03-15 20:31:46 20.8 26 12.3
003B598A 2019-03-15 20:00:03 20.8 26 12.2
003B598A 2019-03-15 19:28:14 20.8 26 12.6
003B598A 2019-03-15 18:56:25 20.8 26 12.6
003B598A 2019-03-15 18:24:44 20.8 26 12.5
003B598A 2019-03-15 17:52:53 20.8 26 12.4
003B598A 2019-03-15 17:21:07 20.8 26 17.6
003B598A 2019-03-15 15:45:02 20.8 26 17.5
003B598A 2019-03-15 15:13:15 20.8 26 17.5
003B598A 2019-03-15 14:41:24 20.8 26 17.5
003B598A 2019-03-15 14:09:37 20.8 26 17.6
003B598A 2019-03-15 13:37:51 20.9 26 17.6
003B598A 2019-03-15 12:34:16 20.8 26 17.6
003B598A 2019-03-15 11:30:39 20.8 26 17.6
003B598A 2019-03-15 10:58:50 20.8 25 17.6
003B598A 2019-03-15 10:27:06 20.7 25 17.5
003B598A 2019-03-15 09:55:17 20.7 25 17.5
003B598A 2019-03-15 08:51:47 20.6 25 17.5
003B598A 2019-03-15 08:19:57 20.6 25 17.6
003B598A 2019-03-15 07:16:23 20.6 24 17.6
003B598A 2019-03-15 06:44:32 20.6 24 17.7
003B598A 2019-03-15 06:12:46 20.6 24 17.6
003B598A 2019-03-15 05:41:01 20.6 24 17.6
003B598A 2019-03-15 04:37:25 20.6 24 17.6
003B598A 2019-03-15 04:05:40 20.6 24 17.7
003B598A 2019-03-15 03:02:06 20.6 24 17.9
003B598A 2019-03-15 02:30:18 20.6 24 17.8
003B598A 2019-03-15 01:58:34 20.6 24 17.7
003B598A 2019-03-15 01:26:42 20.6 24 17.8
003B598A 2019-03-15 00:54:55 20.7 24 17.9
003B598A 2019-03-15 00:23:06 20.7 24 18
003B598A 2019-03-14 23:51:14 20.7 24 13.6
003B598A 2019-03-14 23:19:28 20.7 24 14
003B598A 2019-03-14 22:47:40 20.7 24 14
003B598A 2019-03-14 22:15:53 20.7 24 13.8
003B598A 2019-03-14 21:44:02 20.8 24 13.8
003B598A 2019-03-14 21:12:12 20.8 24 13.8
003B598A 2019-03-14 20:40:23 20.8 24 18
003B598A 2019-03-14 20:08:37 20.8 24 18
003B598A 2019-03-14 19:36:48 20.8 24 18
003B598A 2019-03-14 19:05:00 20.9 24 18
003B598A 2019-03-14 18:33:13 20.9 24 18.1
003B598A 2019-03-14 18:01:23 20.9 23 18.1
003B598A 2019-03-14 17:29:41 21 24 18
003B598A 2019-03-14 16:57:49 21 24 18
003B598A 2019-03-14 16:26:04 21 24 17.9
003B598A 2019-03-14 15:54:16 21 23 17.9
003B598A 2019-03-14 15:22:30 21 23 17.9
003B598A 2019-03-14 14:18:21 21 23 17.9
003B598A 2019-03-14 13:46:33 21 23 17.8
003B598A 2019-03-14 13:14:44 20.9 23 17.8
003B598A 2019-03-14 12:42:56 20.9 23 17.8
003B598A 2019-03-14 11:39:20 20.8 22 17.8
003B598A 2019-03-14 10:35:48 20.8 22 17.6
003B598A 2019-03-14 10:04:04 20.7 21 17.6
003B598A 2019-03-14 09:32:17 20.7 21 17.6
003B598A 2019-03-14 09:00:28 20.6 20 17.6
003B598A 2019-03-14 04:46:13 20.6 18 12.8
003B598A 2019-03-14 04:14:26 20.6 18 12.8
003B598A 2019-03-14 03:42:43 20.6 18 17.7
003B598A 2019-03-14 03:10:53 20.6 18 17.8
003B598A 2019-03-14 02:39:06 20.6 18 17.8
003B598A 2019-03-14 02:07:15 20.6 18 17.8
003B598A 2019-03-14 01:35:31 20.6 18 17.8
003B598A 2019-03-14 01:03:42 20.6 17 17.9
003B598A 2019-03-14 00:31:54 20.6 17 17.9
003B598A 2019-03-14 00:00:10 20.6 17 17.8
003B598A 2019-03-13 22:56:39 20.6 17 17.8
003B598A 2019-03-13 22:24:52 20.6 17 17.7
003B598A 2019-03-13 21:53:05 20.6 17 17.7
003B598A 2019-03-13 21:21:19 20.7 16 17.7
003B598A 2019-03-13 20:49:30 20.7 16 17.7
003B598A 2019-03-13 20:17:42 20.7 16 17.6
003B598A 2019-03-13 19:45:57 20.7 16 17.6
003B598A 2019-03-13 19:14:09 20.8 16 17.5
003B598A 2019-03-13 18:42:29 20.8 16 17.5
003B598A 2019-03-13 18:10:42 20.9 16 17.5
003B598A 2019-03-13 17:38:56 21 16 17.6
003B598A 2019-03-13 16:35:30 21 16 17.7
003B598A 2019-03-13 16:03:39 21 16 17.7
003B598A 2019-03-13 15:31:53 20.9 16 17.6
003B598A 2019-03-13 15:00:06 20.9 16 19.9
003B598A 2019-03-13 14:28:20 20.9 16 21.3
003B598A 2019-03-13 13:56:37 20.9 16 22.5
003B598A 2019-03-13 13:24:48 20.9 16 21.4
003B598A 2019-03-13 12:53:01 20.9 16 22.4
003B598A 2019-03-13 11:48:56 20.8 16 22.4
003B598A 2019-03-13 10:13:37 20.7 16 22.4
003B598A 2019-03-13 09:41:50 20.5 16 23.3
003B598A 2019-03-13 09:10:05 20.3 15 24
003B598A 2019-03-13 08:06:27 20.3 15 24.7
003B598A 2019-03-13 07:34:41 20.3 15 25.2
003B598A 2019-03-13 07:02:50 20.3 15 25.7
003B598A 2019-03-13 05:59:17 20.4 15 26.1
003B598A 2019-03-13 04:55:43 20.4 16 26.5
003B598A 2019-03-13 02:16:50 20.4 16 26.9
003B598A 2019-03-13 01:44:57 20.4 16 27.2
003B598A 2019-03-12 20:58:55 20.6 16 27.6
003B598A 2019-03-12 19:55:21 20.6 16 27.9
003B598A 2019-03-12 18:51:45 20.7 16 28.1
003B598A 2019-03-12 18:19:57 20.7 16 28.4
003B598A 2019-03-12 16:12:50 20.8 16 28.6
003B598A 2019-03-12 15:41:05 20.8 16 28.8
003B598A 2019-03-12 15:09:15 20.7 16 29.1
003B598A 2019-03-12 14:37:26 20.7 16 29.3
003B598A 2019-03-12 14:05:36 20.7 16 29.5
003B598A 2019-03-12 13:33:47 20.7 16 29.5
003B598A 2019-03-12 13:02:00 20.7 16 29.5
003B598A 2019-03-12 12:30:13 20.7 16 29.5
003B598A 2019-03-12 11:26:37 20.6 16 29.7
003B598A 2019-03-12 10:54:46 20.5 16 29.7
003B598A 2019-03-12 10:22:59 20.5 16 29.8
003B598A 2019-03-12 09:51:11 20.4 15 30
003B598A 2019-03-12 09:18:48 20.4 15 30
003B598A 2019-03-12 08:46:59 20.3 15 30
003B598A 2019-03-12 08:15:09 20.3 15 30
003B598A 2019-03-12 07:43:21 20.3 16 30
003B598A 2019-03-12 07:11:30 20.4 16 30
003B598A 2019-03-12 06:39:41 20.4 16 30
003B598A 2019-03-12 06:07:50 20.4 16 30
003B598A 2019-03-12 05:36:01 20.4 16 30
003B598A 2019-03-12 05:04:10 20.4 16 29.8
003B598A 2019-03-12 04:32:20 20.4 16 29.7
003B598A 2019-03-12 04:00:30 20.4 16 29.5
003B598A 2019-03-12 03:28:40 20.4 16 29.3
003B598A 2019-03-12 02:56:51 20.4 16 29.1
003B598A 2019-03-12 02:25:03 20.4 16 28.8
003B598A 2019-03-12 01:53:18 20.4 16 28.6
003B598A 2019-03-12 01:21:28 20.5 16 28.4
003B598A 2019-03-12 00:49:43 20.5 16 28.1
003B598A 2019-03-12 00:17:57 20.5 16 27.8
003B598A 2019-03-11 23:46:09 20.5 16 27.6
003B598A 2019-03-11 23:14:22 20.5 16 27.2
003B598A 2019-03-11 22:42:34 20.5 16 26.9
003B598A 2019-03-11 22:10:46 20.6 16 26.5
003B598A 2019-03-11 21:38:54 20.6 16 26.1
003B598A 2019-03-11 21:07:10 20.6 16 25.7
003B598A 2019-03-11 20:35:21 20.6 16 25.2
003B598A 2019-03-11 20:03:36 20.7 16 24.6
003B598A 2019-03-11 19:31:49 20.7 16 24
003B598A 2019-03-11 19:00:01 20.7 16 23.3
003B598A 2019-03-11 18:28:15 20.8 16 22.4
003B598A 2019-03-11 17:56:29 20.8 16 21.2
003B598A 2019-03-11 17:24:42 20.8 16 19.7
003B598A 2019-03-11 16:52:54 20.8 16 17.3
003B598A 2019-03-11 16:21:09 20.8 16 11.4
003B598A 2019-03-11 15:49:19 20.7 17 10.9
003B598A 2019-03-11 15:17:31 20.7 16 10.4
003B598A 2019-03-11 14:45:44 20.7 17 10.6
003B598A 2019-03-11 14:14:00 20.6 17 10.3
003B598A 2019-03-11 13:42:11 20.6 17 10.1
003B598A 2019-03-11 13:10:25 20.6 17 10.4
003B598A 2019-03-11 12:38:36 20.5 17 10.2
003B598A 2019-03-11 12:06:51 20.5 17 10.3
003B598A 2019-03-11 11:03:19 20.5 17 9.9
003B598A 2019-03-11 10:31:35 20.5 17 10
003B598A 2019-03-11 09:59:49 20.4 17 10.3
003B598A 2019-03-11 08:56:14 20.3 17 10.3
003B598A 2019-03-11 07:52:37 20.3 18 10.2
003B598A 2019-03-11 07:20:53 20.3 18 10.3
003B598A 2019-03-11 05:44:53 20.4 18 10
003B598A 2019-03-11 05:13:09 20.4 18 10.2
003B598A 2019-03-11 04:41:18 20.4 18 10.6
003B598A 2019-03-11 03:37:42 20.4 19 10.6
003B598A 2019-03-11 03:05:56 20.4 19 10.9
003B598A 2019-03-11 02:34:08 20.4 19 10.9
003B598A 2019-03-11 02:02:19 20.4 19 11.1
003B598A 2019-03-11 01:30:29 20.4 19 11.2
003B598A 2019-03-11 00:58:44 20.5 19 11.1
003B598A 2019-03-11 00:26:57 20.4 19 11
003B598A 2019-03-10 23:55:09 20.5 19 10.9
003B598A 2019-03-10 23:23:25 20.5 19 10.9
003B598A 2019-03-10 22:51:37 20.5 20 11.3
003B598A 2019-03-10 22:19:55 20.5 20 11
003B598A 2019-03-10 21:48:07 20.5 20 11.2
003B598A 2019-03-10 21:16:22 20.5 20 11.3
003B598A 2019-03-10 20:12:50 20.6 20 11.1
003B598A 2019-03-10 19:41:04 20.6 20 11.4
003B598A 2019-03-10 18:37:30 20.6 20 11.3
003B598A 2019-03-10 18:05:40 20.7 20 11.5
003B598A 2019-03-10 17:33:54 20.7 21 11.4
003B598A 2019-03-10 17:02:07 20.7 21 11.2
003B598A 2019-03-10 16:30:21 20.7 21 11.2
003B598A 2019-03-10 15:58:31 20.6 21 11.2
003B598A 2019-03-10 15:26:45 20.6 22 11.5
003B598A 2019-03-10 14:54:52 20.6 23 11.6
003B598A 2019-03-10 14:23:03 20.6 23 11.7
003B598A 2019-03-10 13:51:14 20.6 24 11.5
003B598A 2019-03-10 13:19:24 20.5 24 11.7
003B598A 2019-03-10 12:47:36 20.5 24 11.4
003B598A 2019-03-10 12:15:50 20.5 24 11.2
003B598A 2019-03-10 11:12:17 20.5 24 11.2
003B598A 2019-03-10 10:40:36 20.5 24 11.2
003B598A 2019-03-10 10:08:45 20.5 24 11.5
003B598A 2019-03-10 07:29:53 20.5 24 11.5
003B598A 2019-03-10 06:58:05 20.5 24 11.6
003B598A 2019-03-10 06:26:19 20.5 24 11.6
003B598A 2019-03-10 04:50:51 20.5 24 11.2
003B598A 2019-03-10 04:18:29 20.5 24 11.4
003B598A 2019-03-10 03:46:48 20.6 24 11.2
003B598A 2019-03-10 02:43:16 20.6 24 10.9
003B598A 2019-03-10 01:39:47 20.6 24 10.9
003B598A 2019-03-10 01:08:03 20.6 24 10.8
003B598A 2019-03-10 00:36:17 20.6 24 11.2
003B598A 2019-03-10 00:04:26 20.6 24 11.4
003B598A 2019-03-09 23:32:39 20.6 24 11.4
003B598A 2019-03-09 23:00:56 20.6 24 11.5
003B598A 2019-03-09 22:29:08 20.6 24 11.6
003B598A 2019-03-09 21:57:23 20.6 23 11.6
003B598A 2019-03-09 21:25:37 20.6 23 11.3
003B598A 2019-03-09 20:53:47 20.6 23 11.2
003B598A 2019-03-09 20:22:05 20.6 23 11.1
003B598A 2019-03-09 19:50:24 20.7 23 11
003B598A 2019-03-09 19:18:40 20.7 23 11.1
003B598A 2019-03-09 18:46:52 20.7 23 11.2
003B598A 2019-03-09 18:15:07 20.7 23 11.6
003B598A 2019-03-09 17:43:22 20.7 23 11.7
003B598A 2019-03-09 17:11:35 20.7 23 11.6
003B598A 2019-03-09 16:39:53 20.7 23 11.5
003B598A 2019-03-09 16:08:05 20.8 23 17.3
003B598A 2019-03-09 15:36:18 20.8 23 17.4
003B598A 2019-03-09 15:04:36 20.7 24 17.4
003B598A 2019-03-09 14:32:51 20.7 24 17.4
003B598A 2019-03-09 13:29:20 20.6 24 17.4
003B598A 2019-03-09 12:57:34 20.6 24 17.6
003B598A 2019-03-09 12:25:46 20.6 24 17.6
003B598A 2019-03-09 11:53:58 20.6 24 17.7
003B598A 2019-03-09 11:22:12 20.6 24 17.6
003B598A 2019-03-09 10:50:19 20.6 24 17.6
003B598A 2019-03-09 10:18:31 20.6 24 17.5
003B598A 2019-03-09 09:46:41 20.6 24 17.6
003B598A 2019-03-09 08:43:09 20.5 25 17.6
003B598A 2019-03-09 08:11:20 20.6 25 17.6
003B598A 2019-03-09 07:39:36 20.6 25 19.9
003B598A 2019-03-09 07:07:50 20.6 25 19.9
003B598A 2019-03-09 06:36:03 20.6 26 21.4
003B598A 2019-03-09 06:04:14 20.6 26 22.5
003B598A 2019-03-09 05:32:22 20.6 26 22.5
003B598A 2019-03-09 05:00:35 20.6 26 22.4
003B598A 2019-03-09 03:57:00 20.7 26 22.4
003B598A 2019-03-09 02:53:20 20.7 26 22.4
003B598A 2019-03-09 02:21:34 20.7 26 23.3
003B598A 2019-03-09 01:49:11 20.7 27 23.3
003B598A 2019-03-09 01:17:18 20.8 27 23.3
003B598A 2019-03-09 00:45:30 20.8 27 22.4
003B598A 2019-03-09 00:13:39 20.8 27 23.3
003B598A 2019-03-08 23:41:55 20.8 27 23.2
003B598A 2019-03-08 23:10:02 20.8 27 23.2
003B598A 2019-03-08 22:06:28 20.9 27 23.2
003B598A 2019-03-08 21:34:42 20.9 27 23.2
003B598A 2019-03-08 21:02:56 21 27 23.2
003B598A 2019-03-08 20:31:10 21 27 23.2
003B598A 2019-03-08 19:59:24 21 27 23.2
003B598A 2019-03-08 19:27:38 21 27 23.2
003B598A 2019-03-08 18:55:53 21 27 23.2
003B598A 2019-03-08 17:52:14 21.1 27 23.2
003B598A 2019-03-08 17:20:31 21.2 27 23.2
003B598A 2019-03-08 16:48:47 21.2 27 23.2
003B598A 2019-03-08 15:13:27 21 26 22.3
003B598A 2019-03-08 14:41:41 21 26 22.4
003B598A 2019-03-08 13:06:26 20.9 26 21.3
003B598A 2019-03-08 12:02:55 20.9 25 19.9
003B598A 2019-03-08 09:55:51 20.8 25 19.9
003B598A 2019-03-08 05:41:34 20.7 23 20
003B598A 2019-03-07 19:36:52 20.9 22 20
003B598A 2019-03-07 19:05:07 21 22 20
003B598A 2019-03-07 17:29:45 21.2 22 17.7
003B598A 2019-03-07 16:26:10 21.2 22 17.7
003B598A 2019-03-07 15:54:22 21.2 21 17.8
003B598A 2019-03-07 15:22:36 21.2 21 17.8
003B598A 2019-03-07 13:47:18 21 20 13.4
003B598A 2019-03-07 13:15:34 21 20 13.7
003B598A 2019-03-07 12:12:07 21 19 13.7
003B598A 2019-03-07 11:40:19 20.9 19 13.7
003B598A 2019-03-07 10:36:48 20.8 18 13.9
003B598A 2019-03-07 10:05:03 20.7 18 14
003B598A 2019-03-07 08:29:41 20.7 16 13.9
003B598A 2019-03-07 07:57:52 20.7 16 13.9
003B598A 2019-03-07 07:26:05 20.7 15 13.9
003B598A 2019-03-07 06:54:17 20.7 15 13.9
003B598A 2019-03-07 06:22:34 20.7 15 13.9
003B598A 2019-03-07 05:50:45 20.7 14 13.9
003B598A 2019-03-07 05:18:58 20.7 14 13.8
003B598A 2019-03-07 04:47:11 20.7 14 13.7
003B598A 2019-03-07 04:15:24 20.7 14 13.5
003B598A 2019-03-07 03:11:55 20.7 13 13.4
003B598A 2019-03-07 02:40:07 20.7 13 12.8
003B598A 2019-03-07 02:08:16 20.7 13 12.6
003B598A 2019-03-07 01:36:30 20.7 13 12.3
003B598A 2019-03-07 01:04:41 20.7 13 12.4
003B598A 2019-03-07 00:32:48 20.7 13 12.4
003B598A 2019-03-07 00:01:04 20.7 13 12.6
003B598A 2019-03-06 23:29:15 20.7 12 12.6
003B598A 2019-03-06 22:57:27 20.7 12 12.4
003B598A 2019-03-06 22:25:44 20.7 12 12.5
003B598A 2019-03-06 21:53:58 20.7 12 12.1
003B598A 2019-03-06 21:22:10 20.8 12 12
003B598A 2019-03-06 20:17:53 20.8 12 12
003B598A 2019-03-06 19:46:05 20.8 12 12
003B598A 2019-03-06 19:14:22 20.8 12 17.3
003B598A 2019-03-06 18:10:47 20.9 11 17.1
003B598A 2019-03-06 17:39:01 20.9 11 17.1
003B598A 2019-03-06 17:07:16 20.9 11 17.2
003B598A 2019-03-06 16:03:49 20.9 11 17.1
003B598A 2019-03-06 15:32:04 20.9 11 17.1
003B598A 2019-03-06 14:28:36 20.8 11 17.1
003B598A 2019-03-06 13:56:56 20.7 11 17.2
003B598A 2019-03-06 12:53:30 20.6 11 17.2
003B598A 2019-03-06 11:50:03 20.6 11 17.2
003B598A 2019-03-06 11:18:16 20.6 11 17.2
003B598A 2019-03-06 09:11:09 20.4 11 17.2
003B598A 2019-03-06 06:32:04 20.5 12 17.1
003B598A 2019-03-06 05:28:29 20.5 12 17.1
003B598A 2019-03-06 04:24:53 20.5 12 17.2
003B598A 2019-03-06 03:21:19 20.6 12 17.2
003B598A 2019-03-06 02:17:42 20.6 13 17.2
003B598A 2019-03-06 01:46:00 20.7 13 17.1
003B598A 2019-03-06 00:42:28 20.7 13 19.6
003B598A 2019-03-06 00:10:42 20.7 13 19.6
003B598A 2019-03-05 23:38:56 20.7 13 19.6
003B598A 2019-03-05 22:35:20 20.8 13 19.6
003B598A 2019-03-05 22:03:38 20.9 13 19.5
003B598A 2019-03-05 21:31:51 20.9 13 19.5
003B598A 2019-03-05 20:28:17 20.9 13 19.5
003B598A 2019-03-05 19:24:44 20.9 13 17
003B598A 2019-03-05 18:52:56 20.9 13 17
003B598A 2019-03-05 17:48:44 21 14 19.5
003B598A 2019-03-05 16:13:28 20.9 15 19.5
003B598A 2019-03-05 14:38:13 20.6 16 19.5
003B598A 2019-03-05 13:34:36 20.6 16 19.5
003B598A 2019-03-05 13:02:52 20.6 17 19.5
003B598A 2019-03-05 11:59:14 20.5 17 19.5
003B598A 2019-03-05 11:27:24 20.5 17 19.5
003B598A 2019-03-05 10:23:47 20.5 18 19.5
003B598A 2019-03-05 08:16:34 20.5 18 19.5
003B598A 2019-03-05 06:41:13 20.5 19 19.5
003B598A 2019-03-05 05:37:42 20.5 19 19.5
003B598A 2019-03-05 05:05:58 20.5 19 19.5
003B598A 2019-03-05 04:02:24 20.5 19 19.5
003B598A 2019-03-04 21:09:17 20.6 18 19.5
003B598A 2019-03-04 20:37:31 20.5 18 19.6
003B598A 2019-03-04 08:25:52 20.1 17 19.6
003B598A 2019-03-04 07:54:03 20.1 17 17.2
003B598A 2019-03-04 07:22:16 20.1 18 17.1
003B598A 2019-03-04 05:15:12 20.1 17 17.1
003B598A 2019-03-04 04:11:40 20.1 17 17.2
003B598A 2019-03-04 03:39:49 20.1 17 17.3
003B598A 2019-03-04 03:08:04 20.1 17 17.3
003B598A 2019-03-04 02:36:16 20.1 17 17.5
003B598A 2019-03-04 02:04:31 20.1 17 17.5
003B598A 2019-03-03 19:11:33 20.2 18 17.5
003B598A 2019-03-03 17:36:14 20.2 18 12.2
003B598A 2019-03-03 17:04:30 20.3 18 12.1
003B598A 2019-03-03 16:32:44 20.2 18 12
003B598A 2019-03-03 16:00:53 20.2 18 12
003B598A 2019-03-03 14:57:18 20.2 18 12
003B598A 2019-03-03 14:25:32 20.2 18 11.8
003B598A 2019-03-03 13:53:42 20.2 18 11.8
003B598A 2019-03-03 12:49:33 20.2 18 11.8
003B598A 2019-03-03 11:45:58 20.2 18 11.6
003B598A 2019-03-03 10:42:19 20.2 18 11.6
003B598A 2019-03-03 10:10:30 20.2 18 17.4
003B598A 2019-03-03 09:06:56 20.2 18 17.3
003B598A 2019-03-03 08:35:11 20.3 18 17.4
003B598A 2019-03-03 06:59:45 20.3 18 19.8
003B598A 2019-03-03 05:56:10 20.3 18 19.8
003B598A 2019-03-03 05:24:21 20.3 18 19.9
003B598A 2019-03-03 04:52:31 20.3 18 19.9
003B598A 2019-03-03 04:20:42 20.3 18 19.9
003B598A 2019-03-03 03:48:54 20.3 18 20
003B598A 2019-03-03 02:13:26 20.3 18 20
003B598A 2019-03-03 01:09:49 20.4 18 20
003B598A 2019-03-03 00:37:59 20.4 18 20
003B598A 2019-03-03 00:06:12 20.4 18 20
003B598A 2019-03-02 23:34:24 20.4 18 20
003B598A 2019-03-02 23:02:29 20.4 18 20.1
003B598A 2019-03-02 22:30:42 20.4 18 20.1
003B598A 2019-03-02 21:58:50 20.4 18 20.1
003B598A 2019-03-02 18:16:06 20.5 17 20.1
003B598A 2019-03-02 17:44:16 20.6 17 20.1
003B598A 2019-03-02 17:12:26 20.6 17 20.1
003B598A 2019-03-02 16:40:32 20.6 17 20.1
003B598A 2019-03-02 15:36:55 20.5 17 20.1
003B598A 2019-03-02 15:05:06 20.4 17 20.1
003B598A 2019-03-02 14:33:15 20.4 16 20.1
003B598A 2019-03-02 13:29:39 20.4 16 20.1
003B598A 2019-03-02 12:57:48 20.4 16 18
003B598A 2019-03-02 11:54:10 20.4 16 18
003B598A 2019-03-02 11:22:20 20.4 16 17.9
003B598A 2019-03-02 10:18:03 20.4 16 13.4
003B598A 2019-03-02 09:46:16 20.4 15 12.7
003B598A 2019-03-02 09:14:26 20.4 15 12.4
003B598A 2019-03-02 08:42:39 20.4 15 12.6
003B598A 2019-03-02 08:10:53 20.4 15 12.5
003B598A 2019-03-02 07:39:03 20.4 15 12.3
003B598A 2019-03-02 06:03:40 20.5 15 12.1
003B598A 2019-03-02 05:31:52 20.5 15 12
003B598A 2019-03-02 05:00:01 20.5 15 17.4
003B598A 2019-03-02 03:24:40 20.6 14 17.4
003B598A 2019-03-02 02:52:49 20.6 14 17.3
003B598A 2019-03-02 01:49:15 20.7 14 19.6
003B598A 2019-03-02 00:45:31 20.7 14 19.7
003B598A 2019-03-02 00:13:43 20.7 14 19.6
003B598A 2019-03-01 23:10:07 20.8 13 19.6
003B598A 2019-03-01 22:38:20 20.9 13 19.6
003B598A 2019-03-01 22:06:33 20.9 13 19.6
003B598A 2019-03-01 21:02:58 21 13 19.6
003B598A 2019-03-01 20:31:10 21 13 19.6
003B598A 2019-03-01 15:13:12 21 15 19.6
003B598A 2019-03-01 10:26:57 20.7 16 19.6
003B598A 2019-03-01 09:55:12 20.6 17 19.6
003B598A 2019-03-01 09:23:24 20.5 17 19.5
003B598A 2019-03-01 08:51:37 20.5 17 19.5
003B598A 2019-03-01 08:19:16 20.5 17 19.5
003B598A 2019-03-01 07:47:26 20.5 18 19.5
003B598A 2019-03-01 07:15:38 20.6 18 19.5
003B598A 2019-03-01 06:43:50 20.6 18 19.5
003B598A 2019-03-01 04:36:43 20.6 19 19.5
003B598A 2019-03-01 04:04:57 20.6 19 19.5
003B598A 2019-03-01 03:33:13 20.6 20 19.5
003B598A 2019-03-01 03:01:22 20.6 20 19.5
003B598A 2019-03-01 02:29:37 20.7 20 19.5
003B598A 2019-03-01 01:57:52 20.7 21 16.9
003B598A 2019-03-01 00:54:20 20.7 21 16.9
003B598A 2019-02-28 23:50:48 20.7 22 16.9
003B598A 2019-02-28 23:18:58 20.8 22 9.7
003B598A 2019-02-28 20:40:11 20.9 23 9.7
003B598A 2019-02-28 19:36:43 21 24 9.9
003B598A 2019-02-28 18:33:09 21.1 24 9.9
003B598A 2019-02-28 17:29:37 21.3 26 9.9
003B598A 2019-02-28 16:57:51 21.3 26 10.2
003B598A 2019-02-28 15:54:10 21.3 26 10.2
003B598A 2019-02-28 15:22:22 21.2 25 10.2
003B598A 2019-02-28 14:18:49 21.2 25 10.5
003B598A 2019-02-28 12:11:36 21.1 25 17.1
003B598A 2019-02-28 11:08:01 21 24 17.1
003B598A 2019-02-28 10:36:17 20.8 24 17.1
003B598A 2019-02-28 10:04:27 20.8 23 17.1
003B598A 2019-02-28 08:29:03 20.7 22 17.2
003B598A 2019-02-28 00:00:07 20.9 22 17.3
003B598A 2019-02-27 20:49:24 21.2 23 17.3
003B598A 2019-02-27 16:35:01 21.5 26 17.4
003B598A 2019-02-27 16:03:13 21.5 26 17.3
003B598A 2019-02-27 14:59:44 21.4 26 17.3
003B598A 2019-02-27 14:27:52 21.3 26 17.3
003B598A 2019-02-27 12:52:26 21.2 25 17.3
003B598A 2019-02-27 12:20:38 21.1 25 17.3
003B598A 2019-02-27 11:48:46 21.1 25 17.3
003B598A 2019-02-27 11:16:56 21.1 25 17.3
003B598A 2019-02-27 10:45:06 21 25 17.3
003B598A 2019-02-27 10:13:20 20.9 25 17.3
003B598A 2019-02-27 08:06:16 20.9 23 17.2
003B598A 2019-02-27 07:34:29 20.9 23 17.2
003B598A 2019-02-27 06:30:54 20.9 23 17.3
003B598A 2019-02-27 05:59:05 20.9 23 17.3
003B598A 2019-02-27 03:51:53 21 23 17.4
003B598A 2019-02-27 03:19:29 21 23 17.6
003B598A 2019-02-27 02:47:46 21 23 17.6
003B598A 2019-02-27 02:15:57 21.1 23 17.5
003B598A 2019-02-27 01:44:07 21.1 23 12.4
003B598A 2019-02-27 01:12:19 21.2 23 12.5
003B598A 2019-02-27 00:40:30 21.2 24 17.6
003B598A 2019-02-27 00:08:42 21.2 24 17.7
003B598A 2019-02-26 23:36:55 21.3 24 19.9
003B598A 2019-02-26 23:05:02 21.3 24 21.3
003B598A 2019-02-26 22:33:16 21.4 24 22.5
003B598A 2019-02-26 22:01:31 21.4 24 23.3
003B598A 2019-02-26 21:29:43 21.5 24 24.1
003B598A 2019-02-26 20:57:50 21.5 24 24.7
003B598A 2019-02-26 20:26:00 21.6 24 25.2
003B598A 2019-02-26 19:54:11 21.6 24 25.7
003B598A 2019-02-26 19:22:21 21.7 24 26.2
003B598A 2019-02-26 18:50:33 21.7 24 26.6
003B598A 2019-02-26 18:18:45 21.7 24 26.9
003B598A 2019-02-26 17:46:59 21.8 24 27.3
003B598A 2019-02-26 17:15:08 21.8 25 27.6
003B598A 2019-02-26 15:39:40 21.6 25 27.9
003B598A 2019-02-26 14:36:03 21.4 25 28.1
003B598A 2019-02-26 14:04:12 21.4 25 28.1
003B598A 2019-02-26 13:32:22 21.4 25 28.4
003B598A 2019-02-26 13:00:35 21.4 25 28.6
003B598A 2019-02-26 12:28:44 21.3 25 28.8
003B598A 2019-02-26 11:25:09 21.2 25 29.1
003B598A 2019-02-26 10:53:20 21.1 25 29.3
003B598A 2019-02-26 10:21:32 21 24 29.5
003B598A 2019-02-26 09:17:51 20.9 23 29.7
003B598A 2019-02-26 08:45:58 20.9 23 29.7
003B598A 2019-02-26 08:14:14 20.9 23 29.8
003B598A 2019-02-26 07:42:24 20.9 23 29.8
003B598A 2019-02-26 07:10:38 20.9 23 29.8
003B598A 2019-02-26 06:38:53 20.9 23 29.8
003B598A 2019-02-26 06:07:05 20.9 22 29.8
003B598A 2019-02-26 05:35:15 20.9 22 29.8
003B598A 2019-02-26 05:03:29 20.9 22 29.8
003B598A 2019-02-26 04:31:38 20.9 22 29.8
003B598A 2019-02-26 03:59:50 21 22 29.6
003B598A 2019-02-26 03:28:01 21 22 29.5
003B598A 2019-02-26 02:56:12 21 22 29.5
003B598A 2019-02-26 02:24:24 21 22 29.3
003B598A 2019-02-26 01:52:34 21 22 29.1
003B598A 2019-02-26 01:20:43 21.1 22 28.8
003B598A 2019-02-26 00:48:20 21.1 21 28.4
003B598A 2019-02-26 00:16:29 21.1 21 28.4
003B598A 2019-02-25 23:44:39 21.2 21 28.1
003B598A 2019-02-25 23:12:50 21.2 21 27.8
003B598A 2019-02-25 22:41:02 21.3 21 27.5
003B598A 2019-02-25 22:09:15 21.3 21 27.2
003B598A 2019-02-25 21:37:30 21.3 21 26.9
003B598A 2019-02-25 21:05:43 21.4 21 26.5
003B598A 2019-02-25 20:33:57 21.4 21 26.1
003B598A 2019-02-25 20:02:10 21.5 21 25.2
003B598A 2019-02-25 19:30:24 21.5 21 24.7
003B598A 2019-02-25 18:58:38 21.5 21 24
003B598A 2019-02-25 18:26:52 21.6 21 23.3
003B598A 2019-02-25 17:55:04 21.6 22 22.4
003B598A 2019-02-25 17:23:14 21.6 22 21.3
003B598A 2019-02-25 16:51:24 21.6 22 19.8
003B598A 2019-02-25 16:19:35 21.6 22 17.5
003B598A 2019-02-25 15:15:56 21.5 23 17.5
003B598A 2019-02-25 14:44:05 21.3 23 17.6
003B598A 2019-02-25 14:12:14 21.3 23 12.5
003B598A 2019-02-25 13:40:25 21.2 23 12.5
003B598A 2019-02-25 12:36:47 21 22 12.5
003B598A 2019-02-25 12:04:56 21 23 12.4
003B598A 2019-02-25 11:01:10 20.9 23 12.3
003B598A 2019-02-25 10:29:21 20.8 23 12.7
003B598A 2019-02-25 09:25:42 20.6 22 12.9
003B598A 2019-02-25 08:22:05 20.6 22 13
003B598A 2019-02-25 07:50:16 20.6 22 12.8
003B598A 2019-02-25 07:18:31 20.6 22 13
003B598A 2019-02-25 06:46:46 20.6 22 13
003B598A 2019-02-25 06:15:00 20.6 22 13
003B598A 2019-02-25 05:43:15 20.6 22 12.9
003B598A 2019-02-25 05:11:24 20.6 22 12.5
003B598A 2019-02-25 04:39:41 20.7 22 12.5
003B598A 2019-02-25 04:07:49 20.6 22 12.5
003B598A 2019-02-25 03:36:03 20.7 22 12.5
003B598A 2019-02-25 03:04:10 20.7 23 12.5
003B598A 2019-02-25 02:32:20 20.7 23 12.4
003B598A 2019-02-25 02:00:28 20.6 23 12.3
003B598A 2019-02-25 00:56:52 20.7 23 12.2
003B598A 2019-02-25 00:25:01 20.7 23 12.1
003B598A 2019-02-24 23:21:19 20.7 24 12.3
003B598A 2019-02-24 22:49:29 20.7 24 12.3
003B598A 2019-02-24 21:45:07 20.8 24 12
003B598A 2019-02-24 21:13:18 20.8 24 11.9
003B598A 2019-02-24 20:09:41 20.8 24 11.9
003B598A 2019-02-24 19:37:58 20.8 24 12.1
003B598A 2019-02-24 19:06:08 20.8 24 12.2
003B598A 2019-02-24 18:34:19 20.8 23 12.3
003B598A 2019-02-24 17:30:42 20.8 23 11.9
003B598A 2019-02-24 16:58:54 20.8 23 11.9
003B598A 2019-02-24 16:27:05 20.8 23 11.9
003B598A 2019-02-24 15:55:17 20.8 23 11.9
003B598A 2019-02-24 15:23:28 20.8 23 11.7
003B598A 2019-02-24 14:51:41 20.8 23 12
003B598A 2019-02-24 13:48:07 20.8 22 11.9
003B598A 2019-02-24 13:16:20 20.8 22 11.9
003B598A 2019-02-24 12:12:50 20.8 22 12
003B598A 2019-02-24 11:41:02 20.8 22 12.3
003B598A 2019-02-24 11:09:10 20.7 22 12.3
003B598A 2019-02-24 10:37:19 20.8 22 12.4
003B598A 2019-02-24 10:05:34 20.8 22 12.4
003B598A 2019-02-24 09:33:46 20.8 22 12.6
003B598A 2019-02-24 09:01:57 20.8 22 12.5
003B598A 2019-02-24 08:30:08 20.8 22 12.5
003B598A 2019-02-24 07:26:31 20.8 22 12.9
003B598A 2019-02-24 06:54:40 20.8 22 12.8
003B598A 2019-02-24 04:47:23 20.9 21 13.4
003B598A 2019-02-24 03:43:52 20.9 21 13.3
003B598A 2019-02-24 03:12:03 20.9 21 13.3
003B598A 2019-02-24 02:40:15 20.9 21 13.2
003B598A 2019-02-24 02:08:30 20.9 21 13
003B598A 2019-02-24 01:36:43 21 21 13
003B598A 2019-02-24 01:04:51 21 21 13
003B598A 2019-02-24 00:01:09 21 20 13.3
003B598A 2019-02-23 23:29:19 21 20 13.2
003B598A 2019-02-23 22:57:30 21.1 20 13.5
003B598A 2019-02-23 21:53:49 21.1 20 13.4
003B598A 2019-02-23 21:21:59 21.1 20 13.5
003B598A 2019-02-23 20:50:13 21.2 19 13.3
003B598A 2019-02-23 20:18:28 21.2 19 13.3
003B598A 2019-02-23 19:14:08 21.2 19 13.5
003B598A 2019-02-23 18:42:19 21.3 18 13.8
003B598A 2019-02-23 18:10:34 21.2 18 13.7
003B598A 2019-02-23 17:38:48 21.2 18 13.7
003B598A 2019-02-23 17:07:02 21.2 18 13.5
003B598A 2019-02-23 15:31:40 21 17 13.4
003B598A 2019-02-23 14:59:49 20.9 17 13.2
003B598A 2019-02-23 14:28:01 20.9 17 13.5
003B598A 2019-02-23 13:24:29 20.9 16 13.5
003B598A 2019-02-23 12:20:48 20.8 16 13.1
003B598A 2019-02-23 11:48:59 20.8 16 13.5
003B598A 2019-02-23 11:17:17 20.9 15 13
003B598A 2019-02-23 10:45:31 20.9 15 13.2
003B598A 2019-02-23 10:13:45 20.9 15 13.7
003B598A 2019-02-23 09:41:57 20.8 15 13.8
003B598A 2019-02-23 09:10:12 20.9 14 14
003B598A 2019-02-23 08:38:28 20.9 14 14.3
003B598A 2019-02-23 08:06:40 20.9 14 14.3
003B598A 2019-02-23 07:34:47 20.8 14 14
003B598A 2019-02-23 07:03:00 20.9 14 14.1
003B598A 2019-02-23 05:27:31 20.8 13 13.8
003B598A 2019-02-23 04:55:46 20.8 13 13.8
003B598A 2019-02-23 04:23:57 20.9 12 13.6
003B598A 2019-02-23 03:52:10 20.9 12 13.9
003B598A 2019-02-23 03:20:21 20.8 12 13.7
003B598A 2019-02-23 02:48:35 20.9 12 13.6
003B598A 2019-02-23 02:16:48 20.9 12 13.2
003B598A 2019-02-23 01:45:02 20.9 12 13
003B598A 2019-02-23 01:13:22 20.9 11 13.2
003B598A 2019-02-23 00:41:32 20.9 11 13.2
003B598A 2019-02-23 00:09:50 20.9 11 13.2
003B598A 2019-02-22 23:06:08 21 11 13.4
003B598A 2019-02-22 22:34:23 21 11 13.2
003B598A 2019-02-22 22:02:32 21.1 11 13.4
003B598A 2019-02-22 21:30:43 21.1 11 13.7
003B598A 2019-02-22 20:58:57 21.1 11 13.4
003B598A 2019-02-22 20:27:08 21.1 11 13.7
003B598A 2019-02-22 19:55:23 21.1 11 13.6
003B598A 2019-02-22 18:51:45 21.2 11 13.3
003B598A 2019-02-22 18:20:00 21.2 11 13
003B598A 2019-02-22 17:48:13 21.2 11 13.3
003B598A 2019-02-22 17:15:55 21.2 11 12.9
003B598A 2019-02-22 16:44:15 21.2 11 13
003B598A 2019-02-22 16:12:26 21.1 11 13.1
003B598A 2019-02-22 15:40:42 21 11 13
003B598A 2019-02-22 15:08:52 20.9 11 13
003B598A 2019-02-22 14:37:09 20.8 12 13
003B598A 2019-02-22 14:05:17 20.8 12 13.1
003B598A 2019-02-22 13:01:44 20.7 12 13
003B598A 2019-02-22 12:29:54 20.7 12 13
003B598A 2019-02-22 11:58:01 20.6 12 13
003B598A 2019-02-22 11:26:09 20.6 12 13
003B598A 2019-02-22 10:54:19 20.5 12 13.3
003B598A 2019-02-22 10:22:31 20.5 12 13.2
003B598A 2019-02-22 09:50:42 20.4 12 13.5
003B598A 2019-02-22 09:18:52 20.4 12 13.8
003B598A 2019-02-22 08:47:01 20.4 12 14
003B598A 2019-02-22 08:15:12 20.5 12 14.2
003B598A 2019-02-22 06:39:40 20.5 13 18.1
003B598A 2019-02-22 06:07:53 20.5 13 20.1
003B598A 2019-02-22 05:36:04 20.5 13 21.5
003B598A 2019-02-22 04:32:26 20.6 13 23.4
003B598A 2019-02-22 04:00:37 20.5 13 23.4
003B598A 2019-02-22 03:28:45 20.6 13 23.4
003B598A 2019-02-22 02:56:58 20.6 13 23.3
003B598A 2019-02-22 02:25:13 20.6 13 23.3
003B598A 2019-02-22 01:53:27 20.6 13 23.3
003B598A 2019-02-22 01:21:44 20.7 13 23.3
003B598A 2019-02-22 00:49:55 20.7 13 23.3
003B598A 2019-02-22 00:18:06 20.7 13 23.3
003B598A 2019-02-21 23:46:21 20.7 13 23.3
003B598A 2019-02-21 23:14:33 20.7 13 23.3
003B598A 2019-02-21 22:42:44 20.8 12 23.3
003B598A 2019-02-21 22:10:56 20.8 13 24
003B598A 2019-02-21 21:39:09 20.9 12 24.7
003B598A 2019-02-21 21:07:18 20.9 12 24.7
003B598A 2019-02-21 20:35:28 20.9 13 25.2
003B598A 2019-02-21 19:31:56 21 13 25.7
003B598A 2019-02-21 19:00:07 21 13 25.7
003B598A 2019-02-21 18:28:23 21.1 13 25.7
003B598A 2019-02-21 17:56:34 21.1 13 25.6
003B598A 2019-02-21 17:24:44 21.1 13 25.6
003B598A 2019-02-21 13:41:32 20.6 14 25.1
003B598A 2019-02-21 13:09:46 20.6 14 24.6
003B598A 2019-02-21 12:38:01 20.6 14 23.9
003B598A 2019-02-21 12:06:17 20.6 15 23.1
003B598A 2019-02-21 11:34:29 20.6 15 22.2
003B598A 2019-02-21 07:51:59 20.6 17 22.2
003B598A 2019-02-21 07:20:17 20.6 17 22.2
003B598A 2019-02-21 05:13:10 20.6 18 22.2
003B598A 2019-02-21 03:05:56 20.7 18 22.2
003B598A 2019-02-21 02:02:10 20.7 18 22.2
003B598A 2019-02-20 22:19:30 20.7 19 22.2
003B598A 2019-02-20 19:40:23 20.7 20 22.2
003B598A 2019-02-20 15:26:09 20.7 22 22.2
003B598A 2019-02-20 14:22:35 20.8 24 22.2